GFSNW_700_spd_036.txt.gz
Wind_Speed
21 25 33 22 11 23 26 30 30 32 31 40 39 40 33 26 21 23 26 24 23 23 18 20 20 22 19 3 13 22 28 16 22 36 33 31 29 30 35 13 9 27 11 11
18 23 32 16 6 26 33 24 26 18 37 41 38 38 33 27 25 26 23 20 21 22 20 15 20 21 17 16 15 11 18 15 13 12 10 23 29 34 39 37 38 20 5 6
17 23 30 19 6 23 11 33 17 34 31 37 41 34 31 27 25 28 27 26 20 23 25 20 11 13 11 21 16 15 15 20 23 17 24 24 18 36 35 34 8 4 4 26
18 22 28 18 16 19 31 29 19 39 48 41 33 25 22 21 27 22 17 18 20 25 25 19 26 23 15 11 16 18 23 29 27 37 40 29 22 8 12 10 6 8 23 26
19 21 26 9 20 12 25 20 27 30 10 26 31 24 25 24 17 17 21 24 24 28 24 22 13 16 15 18 16 21 24 23 24 39 11 1 4 6 6 14 21 15 20 20
22 24 23 5 9 20 15 24 31 24 27 21 22 23 24 14 11 17 17 20 17 17 17 11 9 15 15 15 15 18 23 12 12 9 9 4 5 4 9 10 9 7 12 17
22 23 20 11 10 34 18 26 31 20 14 22 23 17 14 14 15 24 18 16 14 13 4 21 15 11 15 20 20 20 21 18 16 7 10 5 4 3 6 9 5 8 11 12
17 18 16 11 11 28 21 24 27 27 28 15 15 16 17 19 19 16 18 24 28 14 22 19 12 8 14 18 24 15 15 13 7 4 5 7 2 2 3 10 12 13 14 18
15 14 11 13 7 24 24 30 33 24 18 18 15 18 15 20 14 19 12 8 29 28 26 13 9 5 10 11 8 18 16 17 9 5 4 1 3 3 1 2 6 10 14 20
13 11 9 17 15 25 32 18 20 17 20 21 15 10 14 16 11 19 9 26 25 28 19 15 11 4 11 6 9 16 15 16 15 9 4 8 8 2 3 4 1 3 11 18
12 10 11 20 20 22 32 30 20 20 18 17 14 14 14 13 9 15 13 29 29 26 18 17 7 9 12 9 10 12 16 15 11 9 4 9 5 8 2 1 4 4 1 11
11 10 12 18 26 24 26 22 19 15 20 14 12 15 8 9 10 9 29 22 29 19 18 13 11 8 12 17 11 19 16 17 10 12 5 4 8 5 5 4 2 1 2 6
11 11 13 18 27 32 27 21 17 19 17 13 16 18 13 9 11 10 26 22 30 19 26 19 11 7 12 15 18 16 24 18 17 16 15 14 8 8 2 1 2 3 1 5
13 12 14 21 30 28 20 22 18 15 13 11 10 8 7 6 5 9 19 21 21 27 22 16 8 11 11 11 9 17 13 16 20 21 18 10 20 11 2 2 3 2 1 6
13 13 16 24 33 27 20 20 15 14 13 2 6 7 6 7 3 8 5 10 13 20 21 22 16 10 7 11 14 14 15 10 14 12 8 10 6 12 8 4 4 2 4 4
15 15 19 30 34 29 23 19 19 14 16 7 1 4 7 8 6 5 8 11 12 22 22 21 25 24 17 8 15 18 21 18 14 8 9 11 16 12 12 13 10 6 7 7
18 20 23 34 38 26 25 21 19 14 18 12 4 4 8 9 6 3 8 9 12 12 10 11 16 19 22 25 19 7 9 14 9 7 8 9 10 10 12 12 11 10 10 10
20 22 29 34 33 24 24 24 14 19 17 12 5 6 5 13 10 8 6 4 5 5 6 5 5 6 9 8 10 11 6 9 12 10 11 10 8 10 10 12 11 10 10 9
20 24 32 37 31 27 24 17 13 16 22 10 8 8 5 14 14 12 11 8 9 6 8 9 6 10 10 8 5 6 10 11 7 8 9 10 10 9 9 10 12 12 11 11
21 30 39 37 31 29 24 16 16 16 22 18 11 13 13 7 19 13 10 7 7 4 11 11 15 21 13 12 8 6 6 10 12 11 9 11 11 8 10 10 12 11 11 10
26 35 36 23 28 25 23 16 10 10 7 19 20 11 15 13 13 18 9 4 5 4 7 7 7 19 15 16 18 19 15 14 12 14 16 15 10 6 12 12 12 14 13 11
32 29 31 29 28 12 14 10 9 9 13 11 19 20 9 14 15 13 12 6 6 5 6 6 8 21 21 24 23 22 23 23 17 16 15 15 14 14 12 12 14 15 13 11
22 37 32 21 16 15 12 16 13 13 6 14 15 19 17 18 13 7 8 7 5 4 6 6 11 8 4 8 15 18 21 24 23 19 17 16 15 14 14 15 15 13 13 12
30 11 18 13 11 13 15 22 24 17 13 8 21 24 23 19 14 6 5 7 6 5 6 7 5 9 8 8 9 9 12 17 19 17 17 16 13 14 18 17 16 16 12 12
6 9 7 16 16 11 16 14 21 25 17 7 17 25 19 16 7 8 8 7 6 8 6 5 6 7 8 9 10 11 14 19 22 21 18 18 21 17 14 18 16 14 13 12
18 6 8 13 19 13 17 17 16 18 25 22 23 20 9 11 7 9 9 6 7 6 6 4 4 6 5 5 7 10 16 21 20 20 20 18 18 17 15 16 16 15 13 10
12 10 9 9 18 17 18 20 18 20 23 29 19 14 12 9 9 10 10 11 8 6 4 5 7 7 4 4 7 12 17 20 19 18 21 22 20 18 16 16 15 12 9 8

GFSNW_700_spd_039.txt.gz
Wind_Speed
18 15 22 29 37 2 14 19 23 38 31 46 50 35 34 30 26 19 17 16 18 19 18 15 18 24 21 6 12 16 29 16 19 32 32 29 29 33 32 27 12 17 12 30
18 14 20 29 36 7 14 19 23 35 45 46 51 34 35 33 30 20 16 15 13 14 17 10 16 20 22 21 15 10 13 14 10 13 9 19 27 41 39 36 34 25 3 18
21 16 19 24 22 11 17 17 18 47 43 39 41 41 35 31 29 26 23 20 21 23 21 21 11 12 7 12 22 18 18 19 20 16 20 23 22 28 31 33 24 22 29 36
23 17 20 24 18 17 9 12 21 43 46 40 40 34 21 27 31 27 21 18 20 17 20 19 22 21 14 9 21 22 21 24 25 33 39 43 49 53 45 34 42 20 29 17
25 17 20 24 14 6 17 12 26 41 23 36 30 30 32 23 16 21 20 19 14 18 23 23 13 17 20 11 16 20 23 25 25 39 41 33 21 4 14 29 35 37 12 16
23 15 19 20 8 3 5 12 17 41 5 32 24 25 24 22 20 20 20 20 18 19 13 15 18 10 17 17 19 17 22 19 18 27 32 23 3 9 12 13 13 5 13 17
20 12 18 18 8 7 11 16 23 25 23 19 25 20 22 18 17 18 19 19 17 15 5 10 19 18 20 19 17 19 20 16 18 24 24 4 11 4 8 11 12 12 18 18
17 11 10 10 6 14 17 24 21 24 19 15 18 16 15 10 12 18 21 21 17 12 6 18 14 12 9 16 18 19 20 18 10 7 10 9 10 11 5 7 9 9 15 21
16 8 8 8 10 19 18 22 21 22 17 16 12 8 12 13 16 18 20 16 13 27 13 16 8 7 8 9 7 19 17 15 15 8 5 2 5 9 4 7 6 9 13 17
15 7 9 9 14 17 20 23 21 20 17 15 14 12 11 10 14 15 16 7 15 26 28 18 12 5 12 8 8 9 18 18 19 12 6 8 3 4 3 2 2 4 12 19
15 9 8 14 17 15 21 23 25 26 21 11 13 11 10 14 16 12 12 15 21 30 20 16 6 6 11 7 7 11 17 15 14 12 6 7 1 2 3 4 2 2 1 13
14 9 9 16 20 14 17 22 18 13 13 9 9 10 11 9 7 9 8 10 23 21 14 12 12 5 9 13 8 15 13 15 7 9 2 2 2 2 3 2 3 4 2 6
14 10 11 17 24 15 14 20 20 18 10 10 12 14 13 17 10 14 10 20 28 18 20 15 12 8 10 11 20 15 19 15 16 12 7 9 7 6 5 1 2 4 3 4
14 10 13 17 22 24 22 20 18 14 14 11 8 8 10 5 11 10 20 22 28 22 20 21 16 15 9 11 11 11 13 11 15 17 15 13 8 9 3 2 4 4 2 2
13 10 15 19 21 24 21 18 17 14 11 3 4 7 8 6 6 4 21 20 24 25 18 17 20 12 7 12 10 14 13 12 7 8 11 7 6 14 9 3 2 2 3 2
11 13 19 22 24 26 20 18 15 13 10 10 3 5 4 5 4 2 6 12 13 16 28 20 24 18 10 6 11 10 10 13 14 17 13 10 12 6 14 11 6 3 7 8
10 18 22 28 31 27 26 16 15 15 10 10 5 4 4 6 3 3 4 9 12 13 15 14 13 18 21 25 29 20 18 19 19 19 10 15 8 6 10 9 7 9 10 11
10 20 23 31 32 29 25 20 11 15 6 10 4 6 6 6 7 3 5 4 9 11 10 16 16 16 21 23 15 13 9 7 13 10 7 8 8 8 9 11 12 12 12 11
14 19 24 33 33 25 19 18 16 7 12 7 6 5 4 4 10 8 5 4 3 1 4 3 5 9 10 6 11 13 13 9 8 9 10 12 11 9 9 10 13 12 12 12
16 20 29 31 36 24 18 12 12 12 17 21 17 12 12 5 12 9 6 5 6 3 11 6 12 15 13 11 10 8 8 12 12 9 9 9 11 10 9 10 13 13 10 10
16 23 23 23 30 23 16 7 12 9 8 12 17 17 13 10 10 11 7 3 3 4 6 8 7 19 15 19 15 12 9 8 12 14 14 15 11 7 10 12 15 14 13 12
22 23 24 25 26 11 10 9 9 8 12 6 14 18 12 12 11 9 8 5 4 4 6 6 7 18 17 20 21 19 18 17 15 14 14 15 14 13 14 14 15 15 15 14
16 33 35 15 15 12 11 14 11 12 4 15 9 18 18 10 13 6 7 5 5 4 6 5 8 7 5 16 25 25 22 21 20 18 16 17 15 17 17 16 16 16 17 14
19 12 12 13 9 9 11 17 19 16 12 6 12 18 19 13 15 5 4 5 5 5 6 5 3 4 8 7 9 16 20 21 20 21 20 17 17 18 17 18 18 16 14 14
7 5 8 14 12 6 12 11 12 19 18 15 13 19 15 14 6 6 7 5 6 7 5 6 4 5 7 8 8 9 11 15 18 19 18 18 18 17 15 20 20 16 15 12
14 5 3 4 11 8 11 14 12 16 18 15 19 17 8 10 7 8 9 6 6 4 4 4 3 4 5 7 9 10 11 13 17 19 19 21 18 16 16 14 17 16 15 13
11 14 22 12 6 15 13 18 22 23 24 24 19 13 10 7 9 11 11 15 11 5 4 4 6 7 3 3 4 7 11 16 19 18 18 18 21 19 14 14 16 15 13 11

GFSNW_700_spd_042.txt.gz
Wind_Speed
29 25 18 20 28 37 10 4 8 7 16 43 45 32 32 25 24 25 18 17 13 10 10 8 9 15 11 5 7 14 16 12 18 31 31 32 30 29 32 26 11 19 23 49
27 24 18 20 22 29 12 10 11 12 24 40 41 30 29 30 27 20 18 13 12 14 15 8 11 14 15 21 19 6 14 12 8 9 5 9 25 33 37 41 37 31 16 31
25 24 16 18 20 23 11 11 13 37 24 39 43 27 33 28 29 24 20 16 13 15 17 19 10 11 8 9 20 23 13 15 16 14 13 15 22 29 32 36 27 18 39 56
24 23 14 18 19 18 6 10 10 22 46 32 35 35 29 29 26 27 25 26 22 19 15 14 22 21 18 12 13 22 20 23 26 31 31 32 39 48 50 46 44 31 47 40
22 21 12 15 18 14 14 3 5 26 14 24 37 36 27 20 27 24 24 26 21 13 18 17 16 14 12 18 13 18 27 22 20 35 33 34 38 40 26 18 28 40 43 45
20 20 12 11 12 11 3 7 13 24 17 41 27 31 28 25 17 19 19 18 16 18 14 14 14 20 13 13 15 17 21 20 15 19 31 40 15 9 9 8 6 1 11 9
19 19 10 7 7 5 0 14 22 21 17 24 29 24 22 23 18 15 17 11 15 18 16 15 15 19 16 20 22 17 13 13 14 17 26 3 9 7 3 4 9 9 9 8
18 17 9 5 4 6 7 19 18 29 15 14 27 19 14 14 12 17 14 16 16 19 15 8 6 11 12 20 20 18 17 16 9 5 12 12 5 9 6 6 10 10 18 9
18 16 9 7 5 10 12 18 17 19 23 17 10 15 13 14 14 12 18 16 18 18 16 13 7 8 8 9 8 19 17 14 16 6 5 3 4 9 4 4 4 18 16 15
16 15 9 7 10 12 23 15 21 21 16 10 12 9 9 10 11 13 13 17 10 19 20 19 10 6 13 7 9 10 16 16 20 15 5 13 8 5 3 0 2 4 12 14
14 13 9 9 14 14 23 21 20 14 13 9 6 11 8 8 13 15 15 7 7 22 14 19 8 8 12 9 7 12 17 13 9 12 5 8 4 1 3 3 3 2 2 12
13 12 9 10 17 16 20 22 20 16 16 7 10 10 13 10 15 10 8 7 19 15 11 10 9 6 7 10 6 15 12 14 5 10 3 2 4 1 2 1 3 4 4 5
15 11 9 14 19 17 19 25 18 14 13 9 9 9 13 15 16 17 8 6 24 20 19 14 11 7 7 9 16 12 15 12 17 10 5 3 8 5 3 1 2 3 1 2
13 9 9 15 23 17 18 22 20 16 11 6 7 8 7 7 6 10 12 13 16 17 23 16 13 11 12 12 13 10 14 13 14 19 14 13 9 9 4 2 1 4 5 4
12 11 14 19 25 20 17 19 16 13 9 3 3 6 8 7 8 11 9 21 25 22 16 22 19 18 14 11 13 15 14 14 10 2 6 9 7 9 8 4 3 1 3 5
12 9 15 21 24 23 20 15 18 12 9 5 1 6 5 3 4 3 12 16 23 22 21 23 12 17 7 6 11 9 8 7 11 11 13 12 9 7 14 7 5 2 2 4
6 9 19 21 23 23 20 16 15 18 11 9 5 4 5 4 3 2 4 10 15 17 18 21 29 20 17 22 23 6 8 10 15 17 18 14 11 7 10 10 8 6 4 6
6 15 21 22 21 24 19 13 10 15 11 7 4 5 6 5 3 1 3 6 10 13 14 14 17 19 18 20 19 18 21 19 15 13 13 11 15 8 9 9 8 7 7 8
12 20 18 23 22 22 16 14 9 14 9 4 4 3 3 6 5 3 2 3 3 4 10 11 13 22 15 9 8 8 8 9 9 12 12 10 10 9 9 9 9 10 11 11
17 18 22 23 22 18 17 12 9 10 12 13 13 8 6 7 4 4 2 2 3 3 8 8 14 23 16 10 9 10 12 10 9 7 8 11 9 8 11 11 13 13 11 10
18 18 18 21 26 19 17 10 10 8 6 10 14 15 12 10 4 6 3 3 3 3 4 6 6 10 17 16 12 10 9 10 13 10 10 13 14 9 10 12 15 16 14 12
18 17 22 18 22 10 6 6 7 4 7 6 7 12 12 11 8 6 4 5 4 4 4 5 6 11 15 18 19 17 13 11 11 12 12 12 13 13 12 12 14 16 15 15
19 24 29 11 13 9 7 9 8 9 5 8 12 11 14 9 7 6 5 4 5 5 5 5 6 5 4 17 20 25 22 20 14 13 14 14 14 14 14 14 16 15 15 15
11 8 11 10 7 8 10 9 11 11 12 10 9 10 13 13 9 5 4 5 5 4 5 4 4 4 7 6 15 23 22 21 19 17 17 17 16 16 18 19 17 17 18 17
3 4 5 10 7 4 6 8 9 17 15 11 7 14 13 8 6 6 6 4 5 6 4 5 4 1 3 4 5 6 10 16 19 19 18 16 16 17 18 20 19 17 17 15
9 4 2 3 9 9 8 13 12 12 17 12 11 8 6 9 6 7 7 4 5 2 6 5 1 1 1 3 5 6 8 10 13 16 17 17 17 18 20 17 15 19 14 13
10 12 14 10 4 5 13 13 16 18 19 19 12 10 9 7 8 10 11 19 15 9 10 6 4 5 2 3 3 3 5 8 11 15 17 19 18 20 16 14 14 14 15 15

GFSNW_700_spd_048.txt.gz
Wind_Speed
29 25 24 25 20 19 21 24 11 7 26 28 27 29 27 21 23 21 10 11 11 19 27 16 13 11 6 10 11 18 17 8 10 15 13 14 16 17 22 12 10 15 16 33
27 25 22 23 16 22 28 14 8 15 25 17 23 29 20 21 26 16 15 11 12 17 19 10 13 10 10 8 8 6 15 10 3 3 7 16 20 23 24 27 26 28 16 24
27 24 22 18 14 25 12 10 9 21 22 16 25 30 17 23 25 16 14 13 13 17 17 9 14 11 8 8 10 14 9 13 13 10 3 5 12 15 19 26 23 31 46 58
25 22 20 11 10 18 10 12 17 19 16 27 26 21 20 27 22 14 14 13 11 11 11 11 9 10 10 9 9 10 14 15 19 24 25 23 28 32 31 35 45 35 58 43
24 21 18 7 6 10 6 11 13 11 18 16 22 23 18 20 22 18 14 8 10 9 6 5 7 7 9 10 13 16 17 13 14 21 20 21 27 29 33 33 36 43 39 38
23 21 15 5 2 6 10 11 6 6 5 11 19 21 22 19 22 21 17 9 13 9 7 10 9 9 10 10 10 12 20 12 6 7 7 19 19 10 17 14 11 12 16 18
22 20 14 4 3 1 6 6 10 6 6 12 18 17 14 22 22 15 10 14 9 9 8 10 11 13 11 13 14 13 12 12 9 10 13 4 8 12 1 5 2 5 9 13
22 18 12 2 5 4 5 4 9 8 5 13 21 13 14 19 15 13 14 7 10 10 6 5 7 10 10 19 22 21 17 10 6 4 8 17 8 16 15 3 0 6 7 14
21 15 8 2 6 6 7 6 10 8 11 12 14 15 11 11 18 17 14 12 13 11 9 8 8 7 6 4 4 18 20 19 11 4 5 4 4 15 15 9 2 2 6 11
20 14 6 5 8 9 11 8 9 8 9 12 14 16 12 9 11 9 10 11 12 11 14 16 11 9 8 6 8 14 25 21 22 18 10 11 8 10 9 2 4 7 5 3
21 13 6 9 13 15 14 14 15 11 9 9 11 13 9 7 7 7 5 7 12 17 17 14 9 10 13 8 8 13 20 15 11 12 6 10 1 1 2 3 4 5 5 1
19 15 8 13 16 20 17 15 15 15 11 12 13 8 9 12 8 7 9 13 14 11 10 13 11 8 10 12 7 13 12 16 8 11 5 4 3 3 4 5 6 6 7 9
17 15 10 15 16 20 19 18 16 11 10 10 6 5 6 7 11 14 15 17 15 15 14 12 12 7 8 10 16 12 17 14 20 14 6 8 9 10 12 8 6 7 6 3
15 12 9 15 18 22 23 19 13 11 10 7 2 3 4 7 10 13 14 14 16 14 16 13 12 9 6 9 10 11 17 13 14 18 13 14 11 12 9 6 5 4 3 1
13 10 10 17 18 21 24 20 16 10 9 5 5 6 8 9 13 14 14 11 11 11 18 19 15 12 9 12 17 20 16 18 17 11 6 5 5 6 3 4 2 1 2 4
10 7 12 19 20 23 22 23 21 15 10 3 2 4 8 8 7 9 10 11 17 19 14 17 18 15 11 8 13 14 11 15 14 17 14 9 7 7 5 8 3 2 4 13
6 6 14 21 22 23 24 22 21 16 12 6 6 5 5 6 5 6 3 11 16 16 15 14 15 16 13 18 24 6 4 11 11 15 16 12 10 10 9 10 8 7 6 7
1 9 18 22 21 21 19 19 14 12 9 7 5 5 5 7 4 5 3 8 15 15 13 15 17 18 17 16 11 14 16 13 13 15 18 16 14 11 11 13 16 6 7 9
10 16 20 21 19 21 19 10 9 17 8 4 6 5 2 7 6 3 1 3 5 8 11 17 11 16 15 4 10 8 9 16 18 21 25 23 14 13 15 16 17 8 10 11
19 21 21 23 25 15 13 8 8 12 12 15 14 9 6 6 7 4 1 1 3 3 6 7 15 28 21 16 14 6 5 6 6 8 9 11 13 15 14 14 13 11 14 16
17 15 18 28 18 18 10 6 8 8 6 8 10 12 15 12 7 3 3 2 3 3 4 5 5 6 6 8 16 16 10 9 6 10 10 12 12 8 5 11 12 11 12 13
16 16 27 19 15 6 5 8 6 6 5 5 3 4 6 8 7 4 4 4 3 3 5 4 4 4 7 4 12 14 10 8 9 11 9 10 11 11 11 14 14 15 16 16
16 23 18 10 9 6 6 7 6 6 4 2 3 1 3 5 5 4 4 3 5 5 4 4 4 7 6 4 12 14 11 9 12 15 9 8 10 10 9 12 16 18 17 15
18 14 9 8 7 8 9 12 9 8 6 5 3 5 3 2 2 4 3 4 4 3 2 4 10 11 9 5 10 16 15 15 12 11 10 10 10 10 9 9 14 14 15 14
11 8 7 8 9 9 12 14 16 14 11 6 3 7 5 1 4 3 4 3 2 2 5 13 13 9 6 2 4 10 16 18 20 17 16 14 15 16 16 18 20 20 19 19
13 8 7 6 8 14 10 9 10 11 12 9 9 5 4 7 4 5 4 2 0 1 7 17 16 13 11 6 4 4 9 15 19 20 20 18 17 18 18 19 22 22 21 22
11 15 16 7 6 10 14 11 10 9 9 14 8 7 6 5 6 7 7 5 6 8 10 10 9 10 11 12 9 6 7 9 11 14 17 18 19 20 20 21 23 24 24 25

GFSNW_700_spd_051.txt.gz
Wind_Speed
29 28 24 21 17 23 22 16 6 8 14 27 21 19 10 10 21 22 10 9 11 19 23 16 14 19 3 19 14 21 12 7 8 13 5 10 19 17 18 9 9 13 17 21
27 25 23 17 15 20 18 13 14 12 24 12 17 22 16 18 20 17 10 7 10 20 20 14 9 12 11 11 15 16 16 7 3 3 6 13 19 21 22 22 26 30 15 19
25 26 21 13 12 17 16 8 10 13 20 18 13 18 17 15 13 11 8 10 14 22 15 9 13 11 11 12 13 16 10 8 10 7 2 2 10 14 21 27 27 31 44 53
24 25 19 10 9 14 11 12 12 14 11 10 13 17 11 17 16 10 11 13 12 16 10 10 9 9 11 12 13 13 12 12 14 18 19 18 21 24 23 28 37 31 52 39
26 21 17 7 6 10 7 15 8 6 12 15 13 13 15 18 17 17 8 13 14 7 9 4 10 10 9 8 14 13 14 9 8 18 20 19 25 27 30 34 36 41 46 42
30 18 14 5 2 5 5 6 7 6 10 15 13 17 10 10 16 15 10 10 7 4 6 7 5 8 9 8 10 12 15 12 6 7 7 11 17 21 18 23 20 20 22 15
30 17 10 3 1 4 5 3 7 7 8 12 15 12 13 13 13 13 16 10 4 5 7 6 6 7 10 11 13 12 11 10 9 10 14 5 3 12 6 12 9 10 6 13
28 19 6 2 4 4 3 4 8 6 5 11 14 12 10 12 17 15 10 10 11 9 6 4 2 5 10 15 15 17 13 13 5 5 10 15 4 13 11 8 5 5 3 6
26 22 4 5 5 4 5 6 5 9 7 12 14 12 11 13 12 12 11 12 10 11 9 6 4 4 3 4 2 12 19 16 9 4 5 3 5 11 14 11 7 8 2 8
23 22 7 8 8 9 9 7 7 9 4 10 15 14 14 12 13 11 13 13 12 11 10 8 7 6 7 5 6 8 19 20 22 14 7 10 8 10 8 3 5 5 6 6
21 20 11 11 12 13 12 10 8 4 6 10 16 16 10 8 8 9 7 10 15 10 11 7 7 8 9 9 7 9 19 14 11 14 8 8 1 3 2 7 7 10 7 4
19 19 13 14 15 14 14 11 12 10 8 8 9 13 11 10 11 13 10 11 4 6 9 11 8 8 7 11 6 12 12 15 10 13 7 5 5 5 8 10 11 10 10 12
19 17 13 16 19 18 19 16 16 13 7 9 9 7 8 8 13 14 14 15 12 13 12 12 12 9 9 9 15 10 16 13 16 11 3 8 10 9 12 18 13 11 11 10
19 14 14 17 22 21 20 15 13 11 11 6 7 8 9 10 11 13 16 17 17 18 17 17 16 15 11 9 10 11 13 11 12 17 13 12 13 9 10 8 7 8 9 8
15 12 13 18 23 23 22 23 15 11 8 6 7 8 8 11 11 17 17 20 16 11 15 20 16 16 10 13 15 18 16 15 16 9 10 8 8 7 7 5 4 4 5 7
12 9 14 21 23 23 24 19 14 12 11 4 4 5 9 10 13 13 14 16 19 15 14 17 21 17 12 8 10 18 17 20 20 18 20 14 11 8 7 6 5 4 5 6
10 9 16 24 23 21 22 18 16 16 10 8 7 6 5 7 8 10 9 9 11 17 16 16 13 17 20 22 25 13 10 9 12 14 16 18 16 12 10 9 8 8 7 7
4 11 19 22 20 21 17 17 13 15 9 4 5 6 7 9 9 8 2 6 10 15 15 13 13 14 15 14 9 11 16 14 11 13 16 18 18 14 12 11 12 15 10 14
10 15 21 22 20 18 16 12 10 12 11 5 6 8 5 5 11 7 1 6 8 10 14 13 11 17 14 3 7 10 11 12 14 15 17 18 20 21 20 15 15 15 7 7
17 22 22 20 18 14 14 8 5 11 16 14 16 13 10 9 9 9 4 2 4 5 7 9 13 24 22 23 21 13 12 8 10 12 13 14 16 17 16 18 17 12 12 11
13 14 18 23 17 18 9 7 7 8 5 10 14 11 12 13 11 8 5 3 2 2 3 4 4 5 8 7 12 21 15 8 9 7 8 11 12 12 10 15 11 8 10 16
9 18 25 19 17 5 5 6 6 7 6 6 5 5 6 7 7 4 4 4 3 3 3 3 3 6 11 11 6 13 17 14 10 9 6 7 6 6 5 8 8 11 12 10
14 25 19 9 8 7 6 7 5 5 5 3 2 2 0 3 3 3 4 2 4 4 2 2 6 14 14 10 1 6 9 8 8 12 10 5 7 10 10 11 11 11 12 14
20 13 10 8 7 7 10 10 8 9 5 4 4 3 1 1 3 4 3 4 3 2 1 6 13 12 10 5 5 13 13 12 10 14 14 9 7 8 9 11 13 15 14 14
12 10 8 11 9 8 8 12 12 11 9 6 4 5 4 4 5 4 4 3 2 1 2 9 12 13 12 9 5 4 15 15 15 12 12 13 16 15 15 13 14 17 19 16
12 10 8 8 10 14 11 9 8 10 11 8 7 5 4 6 5 4 4 2 3 4 2 9 9 10 12 12 10 6 3 10 15 19 18 16 16 17 17 17 18 19 20 20
15 15 16 10 10 12 15 15 11 10 9 9 8 5 6 5 5 4 4 4 4 4 6 7 8 10 11 11 11 9 6 6 8 13 18 19 18 18 18 18 19 22 24 24

GFSNW_700_spd_054.txt.gz
Wind_Speed
32 25 26 18 15 20 18 10 12 10 11 24 22 16 12 12 7 14 11 9 10 20 26 13 16 16 5 20 19 28 15 7 11 19 3 7 15 17 16 6 5 10 9 13
32 26 24 15 16 21 17 7 11 12 19 14 13 12 9 13 9 11 9 8 9 18 21 16 14 16 9 19 18 21 19 8 4 2 6 13 17 20 19 21 19 20 5 12
31 28 20 13 14 18 7 6 7 9 14 13 6 9 11 9 9 10 12 13 21 22 12 8 15 18 15 19 19 15 14 7 9 2 2 5 11 17 23 23 19 23 36 43
31 29 17 10 10 13 5 7 6 6 4 11 6 6 1 9 13 14 18 15 21 16 10 14 15 12 16 20 18 16 15 8 10 15 15 14 17 20 22 28 36 29 39 34
29 28 15 7 6 8 7 6 6 3 8 9 6 8 5 10 13 12 11 19 15 7 12 1 14 13 12 8 15 16 17 6 6 14 13 12 20 22 30 33 34 39 42 45
27 26 14 4 3 5 6 6 5 5 12 12 8 5 4 2 13 15 18 16 13 15 13 13 13 8 6 7 7 15 12 6 4 6 4 10 15 13 16 24 26 30 36 19
24 25 13 3 1 3 4 3 4 7 9 11 10 4 3 5 4 6 12 11 9 7 5 5 7 9 11 9 7 7 8 6 8 8 8 4 5 13 14 13 20 17 17 9
21 21 13 1 2 1 2 4 7 4 6 8 8 2 6 7 8 6 8 10 5 4 5 5 3 3 7 10 14 16 12 9 4 4 7 15 8 10 10 11 5 6 4 7
19 19 15 3 4 5 6 6 6 6 5 9 9 6 7 7 7 10 6 4 4 6 5 4 2 3 2 2 2 9 15 13 9 2 3 3 4 9 12 12 5 13 11 5
18 16 13 4 8 8 9 7 5 6 5 4 14 9 10 6 8 6 8 8 9 6 5 5 5 5 5 4 6 7 12 18 17 14 6 11 12 10 8 3 7 14 10 4
19 15 12 7 9 10 11 9 5 5 5 9 14 11 11 8 9 9 6 6 10 10 8 5 6 8 8 8 10 8 10 13 13 13 7 12 3 4 3 6 11 12 15 12
19 14 12 7 10 13 14 10 8 5 7 8 17 14 11 10 9 11 7 6 2 11 6 8 7 8 8 9 6 14 8 14 13 14 9 6 5 7 11 18 14 16 15 17
20 16 12 9 12 17 18 15 14 9 2 8 11 10 8 10 10 13 13 12 12 11 10 11 10 11 9 11 13 14 12 9 14 8 1 4 9 6 13 16 15 13 11 14
21 16 12 11 16 21 21 18 13 14 7 5 7 8 9 11 12 12 15 16 15 14 15 16 16 17 10 12 14 13 16 11 12 19 13 9 10 7 10 11 9 8 8 11
18 11 10 11 18 22 22 17 14 14 10 4 7 7 8 9 12 14 14 17 17 17 18 17 21 18 15 14 18 18 19 19 19 15 5 10 10 8 7 8 6 6 6 10
11 8 9 12 20 24 23 18 16 12 10 3 4 3 6 11 12 13 16 16 16 17 18 14 18 19 13 8 10 13 13 15 15 17 19 18 14 11 10 10 6 5 6 9
13 6 10 14 21 23 24 18 15 12 6 7 5 3 3 9 10 10 12 15 17 18 17 18 15 17 19 22 24 17 11 11 11 14 18 17 17 16 13 11 10 7 7 8
5 1 12 19 21 21 20 14 10 15 9 5 4 4 5 7 12 13 8 3 8 10 15 17 15 13 14 15 12 10 15 16 14 12 13 13 14 15 15 12 12 10 12 13
7 11 16 19 21 19 16 12 10 10 12 4 5 6 4 5 11 15 8 7 7 5 17 16 10 12 11 8 11 13 8 9 11 13 13 13 13 13 16 17 18 13 14 10
10 17 20 20 19 17 13 6 6 7 11 15 15 15 13 13 13 15 15 4 5 4 10 10 14 21 15 19 24 21 14 12 9 9 12 15 17 19 20 20 15 12 11 8
8 10 13 21 17 14 9 5 6 6 4 7 11 12 12 12 12 10 7 4 3 2 3 5 3 2 8 10 11 12 17 18 10 7 8 9 9 8 8 11 12 11 10 10
9 11 21 21 14 6 7 7 6 6 6 6 5 4 6 7 7 5 5 4 2 1 1 1 1 7 13 14 11 7 10 18 9 8 6 8 13 7 2 5 9 9 7 12
15 13 16 11 9 7 6 7 5 6 6 5 2 1 2 2 3 3 4 3 2 4 0 2 5 14 13 9 3 5 3 11 10 4 7 2 2 2 4 2 6 9 8 7
16 9 9 8 6 6 8 10 9 9 7 3 2 2 1 2 2 3 3 4 3 2 3 3 11 12 11 7 1 3 6 7 7 9 6 4 6 7 9 4 9 9 9 7
14 8 7 11 7 5 3 8 9 9 8 6 2 3 3 3 5 4 4 2 2 1 3 6 9 11 12 11 6 1 11 11 10 10 10 12 10 5 5 6 6 9 10 10
13 11 8 8 12 15 11 8 8 8 9 8 5 3 3 4 4 3 3 2 2 3 2 5 7 9 12 14 14 11 5 7 15 16 15 14 14 17 16 15 14 15 16 18
12 14 18 12 8 10 12 15 13 8 7 8 6 5 5 4 4 4 4 3 3 5 3 4 5 7 10 12 13 14 13 8 5 9 14 17 17 16 16 16 17 18 19 20

GFSNW_700_spd_057.txt.gz
Wind_Speed
36 34 26 16 17 22 13 11 9 4 6 12 11 5 4 10 6 9 15 12 18 27 21 18 19 19 5 13 29 21 13 7 6 16 1 5 16 20 18 6 2 6 5 12
35 33 23 13 15 16 10 16 12 10 8 6 7 3 2 12 11 14 10 9 14 19 20 15 11 14 6 13 21 22 18 7 6 3 7 14 20 17 17 20 17 15 1 9
34 33 19 9 11 12 4 7 6 7 6 5 2 3 4 10 9 14 13 15 20 29 17 10 17 20 15 18 19 19 13 6 8 7 3 5 14 19 21 23 18 17 26 38
31 31 17 6 8 10 6 3 7 7 5 3 4 5 6 1 13 17 23 20 23 16 14 18 21 16 22 17 19 15 14 11 13 16 14 14 15 17 20 31 34 25 28 31
29 29 19 3 4 4 4 5 7 4 7 5 4 5 13 16 16 19 15 20 14 21 16 10 20 18 23 20 20 17 16 6 6 14 10 10 17 22 29 30 32 38 39 44
28 27 21 2 1 1 4 7 7 8 9 7 4 3 11 8 19 19 20 14 10 14 14 13 8 10 12 6 12 19 17 9 3 5 2 9 13 10 13 18 23 26 36 22
27 24 21 3 2 2 4 7 7 10 7 10 5 3 6 11 14 17 14 13 12 12 11 6 5 4 6 5 6 7 8 7 6 7 7 2 2 11 10 11 13 13 19 13
26 22 21 7 6 5 4 7 8 7 8 9 6 3 3 6 10 9 11 8 6 4 4 7 8 10 9 9 7 10 9 7 4 4 5 16 16 4 5 11 9 4 8 3
25 22 19 13 10 8 7 6 7 6 6 7 6 6 4 5 4 3 4 4 6 4 4 5 4 3 3 3 5 15 16 13 9 4 3 4 1 4 12 11 4 13 10 10
24 22 18 15 13 9 6 5 3 5 7 5 10 11 7 6 8 5 7 6 5 4 2 4 4 4 4 4 6 8 12 15 20 14 6 11 8 5 9 3 5 13 16 3
24 24 19 16 15 15 12 9 5 6 6 8 16 11 10 10 8 7 3 5 7 7 5 4 4 6 6 7 9 7 7 9 10 13 8 10 1 4 4 5 11 16 17 16
26 26 21 18 16 19 15 14 10 6 7 8 15 13 11 9 11 11 6 5 1 5 5 7 5 6 6 7 6 12 9 10 5 11 5 5 1 4 9 16 16 16 16 13
28 29 23 19 17 22 19 15 14 9 4 8 16 13 9 10 8 10 10 10 8 7 8 9 8 9 9 10 11 17 18 10 11 6 1 4 8 10 13 12 13 12 9 10
32 30 23 17 18 23 22 19 15 12 7 7 13 14 11 10 12 12 12 13 14 14 13 11 13 15 11 12 12 14 13 13 14 15 7 11 14 10 7 10 10 8 7 8
29 24 16 13 18 24 24 21 14 16 9 6 10 11 9 8 8 10 12 14 15 15 17 16 19 19 17 19 17 19 16 17 18 16 14 9 8 10 11 9 9 8 6 7
19 13 10 14 19 25 25 20 15 15 15 6 4 7 6 7 9 12 15 14 18 20 19 19 20 17 12 8 8 9 6 11 16 17 16 16 16 15 14 12 10 7 9 10
15 15 9 14 21 26 25 19 17 14 12 5 4 4 5 3 6 9 9 12 16 17 21 21 17 10 12 22 22 16 14 13 12 13 16 19 20 20 17 16 10 7 7 10
6 1 4 18 25 27 21 14 14 13 9 5 4 3 4 4 6 11 10 6 8 10 16 16 14 12 14 11 9 9 11 16 19 17 18 14 14 13 15 15 15 12 11 12
6 10 14 21 23 24 15 11 10 15 12 2 5 5 3 4 8 13 14 4 8 7 9 15 10 16 8 7 11 11 12 11 9 13 17 17 16 15 12 13 14 14 12 12
9 16 20 19 20 21 12 8 7 7 11 14 14 12 11 13 13 11 13 5 7 5 11 11 16 17 17 17 18 21 22 17 12 12 10 12 14 16 17 18 18 14 12 12
7 9 7 22 18 18 9 6 7 5 5 7 8 7 9 10 9 9 5 4 3 3 3 7 4 5 4 8 12 15 16 17 23 17 10 7 8 10 9 8 9 11 10 9
7 8 18 20 18 7 6 7 6 6 6 7 5 5 6 6 6 5 5 5 3 2 1 3 3 6 13 14 11 8 9 10 12 13 8 7 7 8 10 11 11 11 7 8
10 17 19 8 8 7 7 9 7 8 7 7 5 2 1 2 2 3 4 3 2 2 4 3 3 11 12 8 7 4 4 5 13 7 8 7 5 6 1 5 9 8 7 9
14 7 8 8 6 9 9 11 9 10 8 4 4 3 1 2 2 2 3 4 3 2 2 2 6 8 9 8 4 1 2 7 8 7 4 6 0 3 3 4 6 5 7 8
11 7 8 11 9 8 9 10 10 9 9 7 4 4 4 4 4 3 3 3 2 3 4 4 6 8 11 13 13 8 3 5 8 9 9 9 9 5 1 3 6 4 8 7
14 10 9 9 12 12 8 6 9 9 10 9 7 4 3 4 4 3 4 2 4 5 4 3 5 8 10 12 13 13 11 5 9 11 10 8 8 11 8 7 8 7 10 12
13 13 17 13 7 9 12 14 13 10 9 8 6 5 4 4 4 4 4 3 5 8 5 3 2 5 7 9 11 12 12 11 9 5 9 13 16 16 16 16 16 17 17 18

GFSNW_700_spd_060.txt.gz
Wind_Speed
36 36 35 14 16 11 17 16 11 11 14 6 5 5 7 7 12 14 16 14 24 28 22 25 23 22 5 25 19 17 11 7 11 16 5 9 18 18 16 5 4 3 1 11
31 32 31 12 14 10 12 13 15 14 12 8 9 11 9 13 15 11 11 11 19 20 19 13 19 18 7 27 25 16 14 8 9 5 8 14 17 21 21 20 10 8 3 7
32 28 27 9 10 9 8 11 6 11 11 10 11 10 12 14 15 15 13 15 16 21 16 8 17 19 9 15 25 20 14 10 6 7 3 6 13 17 19 22 11 10 25 30
29 26 25 6 7 6 7 6 9 7 8 8 6 16 16 12 16 15 17 13 22 19 13 13 18 18 20 15 15 18 12 8 11 11 10 11 11 12 14 28 32 19 27 33
27 25 23 6 5 4 9 3 5 10 8 6 7 15 15 18 17 16 20 26 17 14 17 11 22 19 22 12 19 20 14 5 7 11 14 17 22 23 26 27 28 35 38 40
24 23 21 8 4 3 5 3 9 9 8 9 9 12 12 14 18 14 18 20 14 12 15 12 8 9 15 7 17 19 11 8 4 4 2 8 14 15 17 22 22 23 35 24
21 21 19 12 3 4 2 3 8 10 7 6 9 9 11 11 14 18 12 13 10 15 13 10 12 14 8 5 8 12 6 7 5 6 6 2 5 3 6 7 8 11 14 10
19 19 18 14 4 6 2 4 7 7 7 7 3 3 7 13 12 14 11 9 9 8 8 6 8 7 4 3 4 7 11 8 4 3 5 16 12 4 2 5 6 3 10 8
19 17 16 13 7 8 6 5 7 7 8 7 6 5 5 6 5 8 7 6 6 3 5 6 4 3 4 4 4 11 11 10 8 2 3 4 3 2 3 7 2 9 15 12
19 19 16 14 8 8 10 8 11 10 9 8 10 9 7 7 6 4 6 5 5 3 3 6 5 4 4 4 6 8 12 14 17 14 6 11 7 9 4 2 1 9 15 13
20 20 18 16 11 9 13 13 14 12 11 9 12 13 10 9 8 5 4 4 5 4 3 4 5 6 6 6 7 5 5 8 7 11 7 10 4 6 4 4 7 15 15 14
22 23 22 18 15 11 15 16 13 14 12 9 16 14 8 12 11 9 5 3 2 5 6 7 6 6 6 9 5 10 7 9 4 8 5 4 2 4 6 10 15 15 14 11
24 27 27 20 15 13 17 19 16 10 8 9 17 15 11 10 9 9 7 6 5 4 5 5 7 7 8 7 8 14 14 13 15 11 6 4 10 10 8 11 13 13 10 8
26 27 25 17 14 14 22 22 21 12 11 8 17 16 14 11 11 10 9 10 13 12 12 11 12 11 10 11 10 11 10 11 10 16 4 8 6 7 6 8 11 9 9 7
26 25 20 15 10 14 24 25 24 16 10 8 12 16 13 11 11 12 13 14 14 15 15 16 16 17 15 21 20 21 16 18 17 17 12 15 10 9 7 11 12 11 9 8
23 25 12 10 9 16 25 25 19 20 10 6 10 12 13 12 13 12 13 16 17 18 18 21 21 19 17 10 8 6 3 8 11 16 16 18 15 15 14 15 15 11 10 9
24 15 8 8 11 21 26 22 19 17 17 8 5 5 11 9 8 7 8 11 20 20 23 24 20 19 14 19 19 10 13 15 13 11 12 15 15 15 21 19 17 12 9 9
19 8 2 8 17 25 23 17 17 16 13 8 4 3 7 8 6 8 9 10 11 18 22 22 19 17 21 11 11 10 11 11 16 21 22 20 16 15 15 15 14 15 15 15
10 4 6 15 23 24 18 14 16 15 11 5 5 5 3 6 6 10 12 10 10 9 12 16 12 14 10 13 14 13 14 15 14 12 11 15 17 18 17 15 14 16 17 15
6 15 15 17 24 18 17 10 7 14 16 14 12 10 10 11 13 9 9 7 7 6 9 8 17 9 16 19 15 20 22 23 21 17 14 13 12 14 15 16 18 18 17 16
8 4 8 22 18 17 9 7 7 8 5 9 11 10 9 10 10 10 6 5 4 4 5 10 7 10 13 10 11 18 19 19 20 21 18 13 11 11 12 13 14 15 16 15
8 5 13 16 14 7 5 6 7 7 8 7 6 6 6 7 6 5 6 6 4 3 2 3 2 3 4 9 10 11 12 13 14 16 17 17 11 11 11 12 11 11 12 14
9 9 12 10 8 9 6 9 7 7 7 9 9 5 3 2 5 5 5 3 3 1 2 2 3 7 8 7 9 10 9 5 7 11 11 10 10 9 9 4 12 14 10 9
11 9 9 7 6 8 9 12 9 11 10 7 7 7 3 3 3 4 3 3 3 3 4 3 2 4 6 10 10 12 6 5 10 10 10 11 9 6 3 8 5 7 9 11
14 7 8 11 8 10 12 12 12 9 10 8 6 7 7 5 4 4 4 3 3 4 5 5 4 5 7 10 12 11 10 1 7 6 4 6 5 5 3 7 8 10 8 9
15 12 8 9 13 13 10 11 12 12 11 9 8 6 4 5 4 4 5 3 5 7 8 7 6 5 6 8 10 11 12 10 5 6 6 7 8 7 6 6 4 3 11 14
9 18 22 15 9 14 17 13 10 12 11 11 6 5 6 5 4 5 6 5 6 11 10 7 4 3 5 8 10 12 12 11 9 7 4 9 14 15 14 13 13 13 12 12

GFSNW_700_spd_063.txt.gz
Wind_Speed
30 32 31 17 16 13 14 16 15 16 18 16 16 17 15 22 17 19 22 21 29 28 27 19 14 13 11 21 17 15 13 7 12 13 4 11 14 13 13 5 4 3 1 5
28 31 29 13 13 12 12 10 13 15 15 14 19 15 16 15 13 11 17 16 17 24 21 11 16 17 7 22 19 15 9 8 9 5 7 12 16 19 18 14 3 6 4 2
27 29 27 11 9 10 11 9 6 13 15 18 19 21 22 14 13 13 16 18 14 19 12 6 23 18 9 23 21 14 10 9 3 6 3 6 12 17 19 19 9 8 23 20
25 28 25 11 7 8 8 5 5 9 11 13 19 17 19 13 12 12 14 14 15 14 8 10 19 16 14 14 24 20 9 7 8 6 4 4 5 7 11 24 28 16 22 27
23 26 24 12 6 6 6 3 5 8 10 13 18 17 21 13 10 14 15 20 16 12 9 7 17 18 14 12 18 19 16 4 6 7 10 13 16 16 17 19 22 29 30 29
23 23 23 14 5 5 6 1 4 7 12 15 12 13 14 13 18 17 15 15 10 9 8 9 11 10 12 5 17 17 11 9 3 0 2 6 12 10 12 18 20 19 28 18
22 21 22 16 6 3 3 0 4 5 8 11 14 11 7 17 17 17 19 17 16 16 14 13 13 13 4 8 11 13 7 5 1 4 4 1 3 5 3 7 6 10 14 12
21 20 21 17 10 3 3 3 5 4 6 7 10 11 12 12 13 11 12 14 12 13 12 14 11 7 4 5 7 11 11 5 1 1 4 14 9 9 4 1 3 5 9 14
20 21 19 19 11 7 6 6 6 5 5 7 7 8 9 11 8 7 8 7 6 5 5 3 3 4 4 4 4 8 9 9 6 1 2 3 3 6 3 4 3 2 11 13
16 20 19 19 17 11 9 9 8 8 7 8 10 9 8 7 5 5 5 6 4 3 3 4 3 3 2 2 5 7 9 9 11 10 5 10 7 10 5 3 2 6 15 12
17 20 20 19 19 15 12 13 11 11 11 9 12 12 9 8 7 5 4 4 5 3 3 3 3 4 5 4 4 2 4 6 5 7 6 8 5 6 5 6 2 15 16 14
19 20 21 23 21 18 15 17 17 14 15 9 13 17 11 11 9 6 5 3 1 4 5 4 4 5 5 8 3 7 6 8 3 8 3 1 2 3 9 10 4 14 13 11
21 22 24 25 22 18 18 20 19 16 15 15 15 18 13 12 10 8 7 5 3 2 4 5 6 5 6 5 8 11 11 11 13 10 1 5 7 9 10 9 8 11 10 10
22 23 27 25 19 16 19 22 23 15 9 10 11 19 15 11 9 8 7 8 9 9 8 9 8 7 9 9 9 11 12 12 11 13 7 4 2 3 5 10 6 13 7 8
24 26 25 24 16 13 17 26 27 21 15 7 13 18 17 13 10 11 12 12 12 11 14 16 16 17 13 17 19 22 18 23 20 20 12 13 11 11 12 11 9 12 11 10
26 24 27 13 7 11 14 24 29 21 15 4 9 13 17 15 14 13 14 13 13 15 17 20 20 19 16 13 12 6 6 9 14 15 14 16 15 14 15 15 15 15 15 12
22 21 11 6 8 13 19 21 23 23 14 6 8 7 14 17 15 13 10 10 12 18 21 25 24 22 17 22 22 12 11 10 11 13 14 13 14 14 15 16 17 17 14 13
20 7 10 3 9 15 23 15 17 20 14 10 3 3 7 11 10 10 11 10 12 16 22 22 22 21 23 20 23 18 19 20 19 19 20 23 22 19 16 16 16 15 14 16
13 6 5 6 12 21 18 14 19 18 14 7 6 7 3 7 9 10 11 10 12 11 16 18 15 20 11 15 19 19 17 17 16 14 14 14 15 15 16 17 16 17 16 17
9 13 7 9 22 17 16 14 17 16 16 13 11 8 8 6 8 10 8 8 7 6 10 10 16 17 21 18 14 14 18 19 21 21 18 18 18 12 13 14 16 17 18 17
2 4 1 18 13 16 6 7 9 9 7 10 15 15 15 12 10 12 7 5 4 4 6 9 5 10 18 17 18 21 20 22 23 23 20 21 18 13 12 13 14 15 17 19
5 3 5 14 9 3 4 7 6 6 6 6 4 5 6 8 7 6 5 6 4 4 4 5 3 5 8 7 9 12 14 15 17 18 18 19 20 15 13 14 14 15 12 11
6 9 6 7 7 6 5 7 6 6 6 4 5 6 5 5 6 5 4 4 5 4 3 3 4 4 1 3 5 7 10 13 13 11 12 13 14 12 14 16 12 13 15 15
8 8 7 6 5 7 8 8 8 8 6 5 6 9 5 5 4 4 3 4 4 4 4 3 3 6 7 8 10 10 14 6 6 9 12 10 9 10 14 12 7 6 8 6
11 7 6 11 8 7 9 10 11 10 9 8 5 8 9 6 5 4 4 3 4 5 7 7 3 3 6 9 11 13 15 17 6 1 5 6 4 3 3 10 9 7 9 10
11 11 9 7 12 14 11 13 14 13 11 9 8 7 4 7 4 5 6 4 5 6 12 11 9 5 2 6 9 11 12 12 12 13 6 5 4 2 2 4 7 9 12 9
9 14 22 16 10 12 16 12 10 12 12 11 7 5 5 5 5 6 7 7 4 11 13 13 10 5 2 2 4 7 9 11 10 8 8 7 8 11 11 8 7 6 7 16

GFSNW_700_spd_066.txt.gz
Wind_Speed
27 32 34 28 16 14 14 12 11 13 17 22 19 18 17 17 14 19 19 18 25 23 15 19 9 12 8 13 8 7 8 7 9 12 5 11 12 12 11 5 5 4 2 3
25 31 34 27 14 13 13 8 9 15 16 18 23 15 18 19 13 13 15 13 15 22 13 8 13 10 12 13 11 11 10 7 9 4 7 11 15 18 15 9 5 5 4 1
23 29 31 26 13 12 11 3 4 14 17 20 19 17 14 14 14 15 17 14 13 16 14 4 12 12 10 17 14 11 8 8 2 5 1 5 11 17 19 17 7 6 15 5
21 28 30 26 12 10 9 4 6 12 14 18 20 19 11 12 12 14 14 15 14 10 5 8 13 13 9 19 16 11 6 4 3 1 1 1 3 7 15 23 24 13 10 17
19 25 27 26 13 10 9 1 3 13 15 14 15 15 12 7 9 10 13 14 11 7 2 2 8 15 14 9 21 17 13 2 2 5 8 10 12 10 11 13 17 24 22 20
16 22 25 25 16 10 9 1 3 7 13 11 14 14 11 10 13 12 12 10 7 5 5 5 8 8 8 3 12 19 14 11 5 1 3 5 10 10 14 16 17 17 20 11
14 18 22 23 20 11 8 4 1 5 8 12 12 11 16 12 11 13 11 12 13 13 13 14 11 7 2 8 10 10 9 8 4 3 3 1 2 3 2 2 3 6 6 5
12 16 18 20 21 15 9 7 6 1 6 10 13 10 13 12 13 13 15 13 13 13 13 11 7 6 4 6 7 9 8 3 2 1 4 9 2 5 3 2 4 5 6 8
14 13 17 18 19 17 12 8 7 5 6 8 10 11 11 10 10 11 10 9 7 7 5 3 3 3 4 4 5 7 7 9 4 1 2 2 3 6 5 2 5 3 8 12
20 13 15 19 17 18 15 12 10 9 7 9 11 10 9 7 6 5 5 4 3 2 2 2 2 2 4 3 5 7 8 6 7 6 4 7 7 9 2 2 3 2 12 14
13 13 16 21 23 20 18 15 14 14 12 10 12 13 11 9 7 5 4 4 4 3 3 3 3 3 5 3 3 3 4 6 5 6 5 5 2 4 4 4 4 3 12 11
16 16 16 18 21 28 24 17 17 19 16 9 12 13 9 12 9 6 4 3 1 3 3 3 3 3 3 5 2 6 3 6 2 6 2 2 1 2 4 11 10 3 8 10
19 19 19 21 23 25 28 20 21 21 19 15 14 14 18 12 9 9 9 5 4 2 3 3 3 3 3 3 5 8 7 8 10 8 3 0 3 7 11 11 7 7 10 6
18 20 22 24 27 25 27 24 22 23 17 14 12 17 18 14 15 10 8 9 8 7 6 6 5 4 6 6 8 10 9 10 10 14 7 8 9 4 4 9 9 7 10 7
19 23 26 27 26 28 19 21 21 23 21 8 13 12 20 17 13 11 10 10 10 10 12 13 14 13 13 16 17 16 11 15 22 23 14 13 13 11 12 13 11 12 11 11
22 25 26 25 21 11 17 17 20 26 23 6 7 15 18 18 15 12 12 13 13 14 16 17 19 18 15 12 12 11 10 12 12 15 16 15 14 16 17 16 16 15 14 13
23 25 20 15 15 13 15 9 14 28 20 8 5 7 16 16 17 13 13 14 12 12 18 20 25 21 22 23 26 20 17 15 13 11 11 13 15 16 17 16 16 16 16 14
23 21 8 11 9 13 14 16 14 22 16 7 4 5 9 15 14 14 14 13 14 16 17 24 21 19 22 22 27 26 18 20 22 21 22 22 22 23 22 20 18 17 16 16
11 17 10 12 9 9 20 15 13 17 13 6 6 8 4 9 11 12 11 13 15 16 18 19 14 18 14 16 18 22 23 21 19 19 17 18 18 16 18 16 16 16 17 16
8 9 11 6 4 17 11 10 10 17 15 10 11 12 8 8 9 10 7 9 11 8 12 10 15 24 21 20 19 17 14 17 20 22 16 18 21 22 20 13 14 14 15 16
5 8 5 4 7 6 4 6 7 8 7 11 14 12 11 8 11 12 8 5 5 5 6 9 5 9 14 19 16 16 20 19 20 22 24 23 23 23 21 17 16 14 14 15
6 7 4 5 5 3 3 8 5 6 7 6 5 8 9 9 9 7 5 6 5 5 5 5 4 9 10 11 13 15 16 17 19 21 20 20 18 17 18 17 15 15 15 15
6 7 5 3 4 4 3 5 5 4 7 4 7 8 9 7 7 6 5 5 6 4 4 4 5 8 10 11 13 7 7 12 15 15 15 12 12 14 18 18 15 16 15 16
6 6 6 5 4 6 6 6 9 5 6 5 6 8 6 5 3 4 3 4 4 4 5 4 4 3 4 7 6 6 9 6 6 7 6 5 8 10 12 14 13 14 11 10
7 6 6 10 8 5 5 7 7 7 7 6 4 5 9 6 5 3 4 3 4 5 6 8 6 4 5 7 9 11 13 16 15 10 2 8 9 9 9 10 14 11 9 8
10 11 9 7 9 12 9 9 11 9 8 8 8 6 4 8 5 5 5 4 5 4 9 11 9 5 2 3 7 9 12 13 14 14 15 14 10 7 6 3 10 12 9 7
9 10 15 17 11 9 11 12 10 12 12 10 7 5 7 5 5 6 7 7 9 6 11 13 11 7 4 1 3 6 9 9 9 9 8 8 9 11 13 12 8 4 6 14

GFSNW_700_spd_069.txt.gz
Wind_Speed
28 29 30 32 15 15 16 10 11 15 13 19 17 18 14 13 15 17 17 16 27 12 14 12 7 8 8 13 7 7 6 11 11 9 6 10 9 9 11 4 5 4 2 1
26 28 29 30 16 15 12 7 10 16 16 15 14 14 14 16 9 8 14 14 18 19 16 7 12 9 10 10 7 4 6 7 9 2 5 11 13 17 15 8 4 5 3 1
24 26 27 29 17 15 12 6 6 10 19 13 12 11 12 10 12 12 13 13 15 14 9 8 11 13 12 11 6 8 5 9 4 4 2 4 10 16 19 16 6 5 7 4
22 22 24 26 20 14 12 6 6 11 13 14 14 14 7 8 8 14 12 11 10 8 5 4 12 9 13 13 12 9 5 6 6 5 3 2 2 7 17 23 21 9 6 8
20 19 23 23 22 14 14 6 1 10 9 10 9 8 9 5 6 5 10 13 9 4 6 5 12 9 7 9 13 10 6 4 3 1 3 5 7 6 7 12 16 20 18 14
20 19 21 21 22 14 13 8 5 4 9 8 12 11 8 5 7 9 8 6 2 1 3 6 10 6 6 5 6 14 10 7 1 0 2 4 8 11 16 13 12 10 14 4
19 19 17 20 21 19 10 8 4 4 7 7 14 10 10 9 8 11 6 6 6 12 13 13 9 5 2 5 6 6 5 7 5 2 2 0 4 4 4 3 2 5 2 2
18 18 17 16 20 19 15 8 5 5 6 8 9 12 12 9 12 13 13 13 12 13 12 9 6 6 7 6 6 6 5 3 3 2 3 4 2 5 6 7 7 9 7 6
19 19 18 15 16 19 18 12 6 5 6 7 10 10 9 10 13 11 9 8 9 9 4 2 2 2 4 4 4 7 8 7 4 1 1 2 6 7 8 6 6 7 2 6
18 18 18 17 17 17 19 18 11 8 9 9 11 11 10 10 8 8 6 5 4 2 2 1 1 2 4 4 5 7 8 6 7 5 2 2 7 6 3 3 3 8 2 6
17 16 19 21 20 20 19 21 18 12 13 10 14 15 11 10 8 7 5 4 4 3 3 2 2 2 4 3 3 3 5 6 4 4 4 1 1 4 5 3 5 7 2 5
19 18 18 19 21 23 23 20 21 17 15 12 15 17 16 12 12 7 4 4 2 3 2 2 2 3 3 4 2 7 3 5 1 4 3 4 2 3 5 7 6 8 4 1
22 20 20 19 20 23 26 27 24 21 18 18 18 15 17 13 12 12 7 6 4 2 3 2 3 3 3 3 5 6 5 7 7 4 2 6 5 8 9 11 8 4 4 6
24 20 19 22 23 24 26 27 27 23 19 18 16 22 18 20 15 10 11 10 9 7 5 4 3 2 4 6 7 8 8 8 8 11 8 7 8 8 9 4 9 8 8 6
24 21 22 26 26 25 28 27 20 21 17 11 18 19 18 19 15 16 12 11 12 9 9 10 11 11 11 15 16 17 13 14 16 19 16 14 13 14 14 13 12 10 10 9
21 21 26 28 26 20 20 15 14 17 16 18 9 19 15 21 19 15 13 12 12 14 13 14 16 15 14 12 11 11 9 8 11 12 11 13 16 17 16 16 16 14 13 12
19 24 24 21 13 17 21 13 10 9 18 17 7 6 18 22 20 17 15 13 14 13 15 16 19 18 20 26 26 22 20 18 14 13 10 10 11 13 14 15 16 15 15 14
21 21 22 15 12 14 11 11 9 4 17 13 3 6 15 21 19 17 16 15 16 16 17 20 19 14 20 23 27 22 19 18 18 16 18 17 17 20 21 21 20 18 17 15
20 18 17 17 9 7 9 9 11 8 14 5 5 7 10 16 19 16 14 11 12 14 19 19 15 16 13 17 17 13 13 16 19 18 19 17 18 18 18 17 18 16 13 14
18 15 16 10 13 1 8 6 6 8 16 9 7 13 7 11 12 13 8 7 8 9 13 10 13 26 26 24 23 21 14 15 15 17 20 22 23 23 20 20 19 14 13 13
16 12 8 10 5 1 2 3 5 7 6 8 11 9 12 12 10 14 7 5 5 5 5 6 6 11 14 13 15 20 22 17 18 16 16 20 21 23 25 24 19 15 15 14
14 13 9 6 5 4 4 5 5 6 6 5 7 11 13 14 11 9 7 8 5 5 5 5 5 13 13 12 12 12 11 14 17 17 17 18 18 19 18 18 16 17 15 15
13 9 4 4 4 5 3 3 4 4 5 6 9 7 9 11 9 8 4 5 6 4 5 4 7 9 11 12 13 14 14 13 16 17 16 15 15 13 14 16 17 17 18 17
10 6 6 4 4 5 5 5 4 4 8 7 3 9 8 8 5 5 4 5 5 4 5 4 3 2 3 2 2 3 3 2 3 5 5 6 6 6 9 12 14 15 15 12
7 6 6 8 10 8 5 8 8 4 8 3 2 5 7 5 4 4 5 4 4 5 4 5 8 5 5 5 6 9 11 11 13 12 10 5 2 7 9 12 14 13 11 11
13 11 10 7 9 11 12 7 5 3 5 5 5 6 3 7 4 5 5 4 4 5 4 7 7 5 3 2 4 8 11 13 13 14 14 13 13 10 8 7 4 11 12 8
8 11 15 16 19 13 9 10 9 7 10 10 6 4 6 4 4 6 6 6 9 12 7 11 12 9 6 3 3 5 8 9 9 10 11 12 13 13 14 12 11 9 6 11

GFSNW_700_spd_072.txt.gz
Wind_Speed
34 28 26 30 20 15 11 10 13 15 12 10 17 17 13 12 12 14 17 14 17 9 12 16 12 10 10 17 14 9 6 10 9 6 8 12 10 10 8 3 3 2 1 3
32 25 24 29 22 16 10 7 10 14 8 12 14 12 11 12 6 6 10 10 12 8 8 8 13 14 15 11 7 5 5 9 9 4 4 10 11 15 14 7 4 5 2 3
30 23 21 26 24 15 12 6 6 9 14 12 10 11 13 9 9 9 10 12 12 10 9 7 10 15 8 8 5 4 4 9 4 3 3 7 10 16 16 13 5 4 2 3
29 21 19 24 25 15 12 6 8 6 7 8 10 10 7 8 8 9 7 7 6 0 3 7 11 7 13 10 9 8 8 10 10 8 6 5 4 10 17 19 14 5 4 9
27 21 19 19 22 17 14 4 3 6 4 7 9 6 8 5 3 4 7 8 6 5 4 3 8 6 7 6 10 7 6 7 7 4 3 3 4 6 8 14 17 20 12 9
26 21 20 16 20 20 13 7 3 4 5 4 5 8 6 5 3 5 5 3 1 1 3 6 9 5 5 3 5 10 6 6 3 1 1 2 2 6 10 9 5 9 11 4
27 21 19 19 16 19 17 10 5 3 1 4 4 5 5 4 4 6 4 3 2 8 9 10 8 3 2 3 4 7 3 5 4 1 1 0 3 4 5 7 6 9 9 7
29 24 20 17 14 16 16 15 10 4 3 5 4 5 7 7 9 8 8 8 10 10 11 8 4 5 5 5 5 5 4 3 3 2 2 1 2 5 5 7 4 9 11 5
28 26 21 17 14 14 16 15 14 9 4 8 9 6 5 10 11 10 7 8 10 8 3 1 1 1 2 2 3 4 4 3 2 3 1 1 2 6 8 7 7 8 7 3
27 26 24 21 18 15 14 16 14 13 10 9 10 12 9 9 9 8 6 6 6 2 1 1 1 1 4 3 3 5 7 5 4 3 1 2 9 8 7 4 3 10 7 2
24 25 24 24 21 21 16 17 15 12 12 11 14 17 15 14 11 8 7 6 6 4 3 2 2 2 4 3 3 2 5 4 4 4 2 2 9 10 8 7 6 4 12 3
22 23 24 26 23 21 21 19 19 19 15 12 17 21 20 17 14 11 7 6 3 4 2 3 2 2 3 4 1 6 2 5 2 4 4 8 9 8 11 9 7 8 8 7
22 23 24 24 23 22 24 25 24 23 21 13 19 18 24 21 19 16 11 8 6 4 3 3 4 3 4 3 6 5 5 7 5 4 8 10 8 8 11 11 11 9 5 3
23 23 25 23 23 25 27 28 27 26 25 19 13 19 20 20 21 18 13 13 9 9 5 4 3 3 4 6 7 8 9 8 8 9 9 10 10 10 8 10 9 8 8 10
24 24 21 21 25 28 30 28 22 21 16 18 11 23 22 20 21 17 13 14 10 9 8 8 7 8 9 13 15 17 14 16 14 11 11 13 13 18 16 14 12 12 12 10
22 19 20 23 24 28 20 17 17 14 15 19 13 14 22 23 24 17 18 13 13 13 13 13 13 11 12 11 12 10 6 8 8 10 10 10 19 20 19 18 17 16 14 12
20 18 22 23 24 20 16 22 19 13 12 14 9 7 18 19 23 20 17 13 13 14 15 17 16 14 17 24 25 21 17 17 17 17 13 12 10 11 15 15 15 15 16 15
20 17 23 22 24 19 17 11 10 9 6 12 5 6 15 22 22 23 22 19 18 20 19 20 19 18 19 22 24 20 18 19 20 18 17 16 16 16 16 18 20 19 18 17
20 16 19 18 14 11 5 8 10 9 9 6 6 4 11 24 17 26 17 18 15 16 19 19 15 18 16 20 18 15 13 12 13 17 19 19 19 19 19 19 18 18 18 19
19 14 15 9 12 9 4 1 2 5 11 16 7 11 5 17 25 19 15 12 12 8 13 13 16 27 25 22 21 19 19 18 14 15 16 21 22 22 21 22 23 21 14 18
19 14 14 13 12 8 6 3 5 4 5 9 10 12 7 15 20 19 15 5 6 6 7 8 6 12 10 9 12 14 14 19 19 19 18 17 17 20 22 21 21 20 17 16
18 14 15 10 8 4 5 5 5 6 6 6 8 11 13 9 9 12 9 6 5 5 5 6 5 9 12 10 8 9 9 9 10 15 17 18 19 20 21 22 23 22 19 19
18 13 7 4 4 6 5 4 5 4 5 7 9 12 13 15 12 6 5 6 6 4 5 5 7 10 10 8 7 6 8 11 13 15 14 14 14 16 17 16 16 17 18 18
15 8 6 5 4 5 5 10 12 9 7 8 8 8 8 9 12 6 5 6 5 4 5 5 6 1 3 6 6 4 5 5 4 5 6 6 7 7 7 9 13 16 19 19
13 6 6 8 10 12 14 13 12 10 5 5 3 4 8 7 5 5 5 4 5 5 4 5 8 6 4 6 7 9 11 11 10 10 10 8 4 2 5 8 10 12 14 17
15 11 10 9 13 16 15 13 10 7 8 4 2 3 3 6 5 5 6 3 4 4 4 5 9 8 5 5 3 5 8 10 11 12 13 12 12 10 7 4 1 7 14 14
8 12 13 14 16 20 18 17 9 7 6 6 4 4 5 3 4 5 6 5 7 10 12 5 10 7 6 5 3 4 6 6 7 10 12 14 16 17 18 14 11 7 4 5

GFSNW_700_spd_078.txt.gz
Wind_Speed
34 34 33 33 30 27 21 14 13 16 13 11 9 10 13 10 9 11 10 14 11 15 15 13 9 7 8 12 11 11 10 17 11 6 17 29 19 23 22 7 6 6 3 4
32 32 34 33 31 30 25 15 11 12 14 9 9 8 9 10 12 8 4 9 13 13 11 5 6 8 10 8 7 6 6 9 10 10 12 24 30 23 19 6 6 10 3 2
29 30 31 31 30 26 27 18 9 11 12 12 10 11 11 12 10 8 6 9 7 9 12 8 6 7 5 6 9 10 11 4 5 7 8 18 16 22 25 18 7 3 2 11
30 31 31 29 29 25 24 19 11 13 11 12 10 8 7 6 9 6 4 4 9 8 5 8 8 8 7 5 6 7 8 8 8 11 9 11 19 21 20 21 9 2 4 6
29 32 32 29 26 25 21 20 16 12 6 9 8 10 8 3 6 7 3 5 9 7 4 6 2 5 4 1 3 6 8 7 6 8 6 7 10 14 16 16 14 9 11 9
29 30 31 31 27 25 22 16 17 12 11 8 8 9 11 5 4 5 6 4 6 6 4 1 5 2 1 2 3 3 5 5 4 2 2 4 4 8 13 16 16 15 11 9
31 32 29 30 28 24 23 21 16 16 11 8 7 8 8 7 5 7 7 5 2 3 4 4 5 3 3 3 1 3 2 3 3 3 2 2 1 3 11 7 8 15 9 13
28 31 29 29 27 24 23 21 18 16 14 12 8 7 7 4 2 3 5 1 5 4 2 4 2 2 4 8 2 4 7 4 1 0 2 3 1 2 9 13 5 11 16 13
28 29 30 29 26 24 22 21 18 17 14 14 14 12 8 5 3 1 1 2 3 3 4 3 2 2 3 3 4 1 3 5 3 3 1 2 4 5 9 10 2 9 11 13
26 27 29 29 27 28 24 22 18 16 17 9 15 14 13 8 3 6 3 1 2 3 4 3 2 1 1 1 0 2 1 2 1 1 1 1 0 7 10 4 6 10 9 5
28 27 27 25 27 28 28 23 19 19 21 15 11 12 14 15 9 4 5 2 2 3 1 2 3 2 2 1 4 3 1 1 1 2 2 2 8 7 6 5 6 7 8 6
30 27 26 26 27 28 27 22 23 22 24 21 20 20 19 18 16 13 8 5 3 1 1 0 2 2 4 3 2 1 1 5 3 5 3 3 9 9 10 5 5 4 5 6
30 28 28 28 26 24 25 26 26 29 31 26 14 12 19 18 18 18 14 11 8 4 4 4 4 3 4 2 2 4 3 4 4 3 3 4 5 4 5 6 7 8 8 7
29 26 25 25 26 24 24 26 24 26 27 30 16 13 14 17 19 23 17 15 11 9 9 5 6 6 5 6 8 6 6 3 4 5 6 6 10 10 8 8 7 8 6 5
30 25 25 25 25 24 24 25 26 22 19 25 31 22 14 20 19 22 22 19 15 9 8 8 8 8 9 11 11 11 9 9 6 4 6 9 12 9 10 12 11 9 9 9
28 27 26 27 24 23 25 29 21 14 14 25 29 19 11 17 18 21 23 21 17 17 16 10 11 8 10 7 6 5 5 5 9 19 15 15 17 16 13 16 17 16 15 13
29 28 27 27 22 21 22 24 21 16 20 18 19 13 1 9 15 19 21 20 18 15 13 16 13 14 15 19 22 15 18 18 13 13 14 17 16 16 16 15 16 20 19 17
28 28 28 29 24 19 18 22 16 14 13 16 8 9 1 4 12 15 20 18 16 20 19 17 18 18 19 16 19 14 11 15 14 17 20 24 25 24 23 19 15 15 18 19
29 29 28 29 24 23 25 22 17 12 12 7 9 10 6 11 10 13 16 17 16 18 19 23 16 18 16 18 20 18 15 16 18 17 16 18 20 23 23 23 22 21 21 20
29 29 28 28 29 27 26 23 10 8 11 13 14 13 18 5 16 17 17 17 13 5 10 12 20 28 26 28 25 25 26 26 21 20 18 18 19 19 18 20 25 26 25 24
27 28 27 29 29 22 12 6 6 6 7 7 8 8 8 5 7 8 16 7 7 5 7 9 7 16 15 12 12 14 17 18 18 20 22 23 23 22 20 21 22 23 25 25
24 24 27 23 12 6 3 6 7 6 8 15 14 14 10 6 10 5 10 5 6 4 6 5 5 9 6 8 14 15 14 14 15 13 13 14 14 16 17 19 19 21 24 25
22 22 17 12 4 5 3 6 5 13 17 19 23 19 11 6 8 6 5 6 6 4 5 6 9 9 10 10 7 5 4 5 7 9 10 11 12 12 13 14 15 17 19 22
16 14 12 6 4 4 6 17 22 24 23 22 22 12 5 10 9 4 5 6 5 4 5 6 6 8 5 3 2 4 6 8 10 10 9 7 4 4 6 8 10 11 13 14
15 8 5 8 11 15 20 24 26 26 26 22 15 5 10 6 7 7 6 5 5 5 5 8 9 11 10 9 8 7 8 8 9 10 11 13 13 13 11 9 8 8 9 12
17 13 12 15 19 22 23 23 20 19 20 16 8 4 2 4 3 4 5 4 4 3 4 7 7 11 12 10 8 6 4 3 5 7 9 11 12 12 12 13 13 12 9 7
8 12 16 19 19 21 21 23 21 18 16 12 6 3 2 2 1 2 3 2 4 8 9 11 7 13 12 10 7 3 1 4 6 9 11 12 13 15 16 16 15 13 12 13

GFSNW_700_spd_081.txt.gz
Wind_Speed
31 32 34 34 33 29 25 19 12 15 15 9 10 10 11 13 10 9 13 17 19 20 16 13 8 9 8 17 14 14 8 15 14 12 7 18 23 27 24 10 6 5 3 6
30 31 34 34 34 33 30 23 10 13 14 8 7 8 12 8 13 13 9 16 14 13 13 5 9 11 13 5 4 8 12 11 10 8 11 20 23 26 26 19 12 9 6 3
32 32 32 34 32 31 30 25 11 9 13 13 11 6 10 9 8 8 10 11 7 8 15 10 7 8 11 12 14 9 10 11 4 4 6 24 23 22 26 23 11 3 11 5
33 31 32 32 30 29 27 22 17 14 9 9 9 9 6 7 6 6 8 5 8 8 3 7 10 9 7 8 8 8 7 11 8 7 5 13 26 31 26 23 13 6 5 8
34 30 29 28 28 28 25 23 20 16 11 7 7 7 9 4 4 5 8 7 11 11 6 4 4 6 6 5 6 8 8 11 10 11 7 12 18 19 22 23 23 10 7 11
35 29 28 28 29 29 27 25 22 17 14 9 6 7 9 5 7 4 7 7 8 9 5 3 1 3 3 3 2 6 9 7 4 4 6 11 9 20 19 20 19 16 16 13
36 30 28 30 30 28 26 26 24 20 14 13 8 6 9 8 4 7 6 7 3 2 4 4 4 6 6 4 1 4 8 6 4 7 6 1 3 10 14 18 18 23 18 13
38 27 28 30 30 28 26 26 26 23 18 13 9 9 6 7 3 5 2 2 3 1 2 1 2 1 4 8 2 4 5 6 4 5 3 5 5 6 16 15 14 19 17 14
39 30 27 27 27 26 24 23 24 23 20 17 12 14 10 6 4 6 4 4 5 2 2 3 3 2 2 3 4 3 4 4 2 4 2 2 3 5 11 11 8 14 19 17
35 27 25 23 23 24 23 23 22 23 22 17 21 14 9 7 7 7 3 1 2 1 2 3 3 3 2 2 2 3 2 4 4 3 2 3 4 10 12 6 4 10 12 11
31 27 23 21 22 23 23 22 22 22 24 14 13 20 18 12 8 7 2 2 3 2 1 1 2 2 3 3 3 1 2 2 3 3 2 2 8 11 9 6 13 10 9 5
30 27 22 19 22 24 23 20 24 25 26 23 24 23 20 16 12 12 10 2 2 1 2 2 2 2 3 3 2 1 2 2 2 2 2 2 10 7 8 5 5 6 5 5
28 27 24 21 22 24 25 21 23 28 35 29 6 18 10 12 14 15 15 10 6 5 2 2 2 2 4 2 3 3 1 4 3 3 2 3 6 7 5 7 8 8 7 8
30 27 23 22 23 25 22 19 22 26 31 31 9 14 14 18 15 17 15 13 9 9 7 5 4 3 4 4 6 8 4 2 3 5 4 6 8 7 5 6 7 7 7 6
28 27 24 24 25 27 22 21 22 23 23 26 29 22 7 13 18 19 20 19 16 10 7 8 7 7 7 8 10 8 8 9 8 5 6 8 5 6 6 8 9 8 8 9
29 27 24 24 25 27 27 25 22 23 13 21 31 18 6 12 13 16 19 21 18 15 15 11 9 10 7 5 5 1 4 5 5 10 11 12 13 12 12 13 14 15 16 15
28 26 25 24 24 24 22 21 26 25 17 20 19 7 9 1 7 14 18 21 18 15 15 15 15 10 11 14 18 12 14 15 14 12 14 16 19 19 16 14 15 15 16 20
29 27 26 25 23 24 25 24 23 22 17 14 9 8 7 7 3 5 12 17 17 16 15 16 13 13 14 12 10 11 8 10 10 10 14 17 20 23 24 23 21 19 15 15
29 27 26 25 25 29 27 25 19 16 13 8 8 14 12 7 1 9 7 12 12 12 17 19 14 17 12 9 11 16 16 15 14 15 18 19 18 19 20 22 22 22 22 21
29 27 28 25 29 25 20 11 12 13 13 11 14 13 15 12 6 12 10 11 14 5 11 9 15 25 24 24 22 20 20 18 19 20 19 16 18 18 18 18 17 18 23 25
28 26 24 23 22 15 8 8 8 9 8 13 17 17 25 19 7 10 15 7 9 6 8 8 7 19 14 11 12 13 13 15 17 18 16 17 19 22 22 22 21 21 19 23
27 24 22 16 10 4 3 5 5 8 10 21 18 25 25 17 7 5 14 7 7 4 6 5 6 6 5 7 9 13 15 15 15 16 16 14 14 15 15 15 16 17 18 19
23 19 10 10 4 4 3 5 9 15 23 27 28 27 24 6 7 7 6 8 7 4 5 5 7 7 5 8 8 6 5 5 6 7 8 10 10 11 10 10 11 12 13 15
18 11 9 4 3 4 7 17 21 24 26 26 25 25 10 5 5 5 4 6 5 4 5 5 6 5 7 6 2 0 2 5 6 7 8 7 6 5 4 5 6 8 10 11
14 6 5 4 7 14 18 22 23 24 23 24 24 18 6 6 6 6 5 5 4 5 5 6 8 10 11 10 8 7 7 7 7 8 9 9 8 7 7 7 8 9 7 7
14 11 12 13 15 18 18 20 22 21 19 18 17 9 4 4 4 4 5 4 3 3 6 8 10 8 11 13 10 8 6 3 4 6 7 8 8 9 11 12 12 12 11 10
8 11 16 18 19 18 16 18 19 18 17 13 8 5 3 5 2 2 3 2 4 7 10 11 11 9 13 13 11 8 6 1 4 7 9 11 13 14 16 18 17 15 13 13

GFSNW_700_spd_084.txt.gz
Wind_Speed
43 36 30 30 30 25 26 23 11 13 12 10 7 5 6 7 8 8 14 16 18 20 15 14 7 17 15 10 11 32 29 6 25 26 13 26 33 28 16 13 6 4 2 3
44 39 32 31 31 29 26 22 14 13 14 7 8 4 8 4 7 11 11 12 11 12 14 6 9 12 13 14 11 9 16 13 10 13 8 24 27 29 31 16 10 10 6 4
44 44 32 28 29 26 26 22 15 12 11 11 9 2 7 8 2 6 4 10 4 5 11 10 8 8 11 13 11 13 9 18 8 8 11 29 32 32 34 26 13 8 10 10
44 43 34 27 26 26 24 22 19 16 11 6 5 6 4 5 3 3 4 3 10 13 5 5 7 7 5 7 10 9 12 12 9 8 10 21 30 28 30 29 19 12 10 11
42 42 35 26 25 24 22 22 22 17 13 11 5 5 4 2 3 7 7 7 10 13 7 5 5 6 8 8 6 6 8 8 8 9 4 10 25 23 26 25 22 17 13 12
39 39 36 29 25 26 24 23 21 19 14 13 8 6 6 6 9 1 4 6 6 7 4 3 3 5 7 6 3 4 9 8 5 3 6 9 8 21 27 26 25 22 18 16
38 40 36 30 26 23 24 23 21 19 15 14 10 9 8 8 4 8 4 4 1 1 2 2 3 3 5 6 1 1 6 6 4 7 9 1 2 14 17 18 20 21 20 13
36 39 36 29 26 24 23 22 21 21 19 10 9 9 12 9 8 7 2 3 2 1 2 3 2 2 3 5 2 3 5 5 4 5 4 2 5 9 18 21 20 20 21 16
33 36 36 28 24 22 22 21 21 20 21 17 18 15 11 9 8 6 3 3 2 2 2 1 3 2 3 3 2 1 3 3 1 4 2 1 1 5 9 11 8 15 18 19
30 34 35 28 22 22 20 20 21 23 21 22 15 10 14 14 10 9 1 3 3 1 1 1 2 2 2 2 3 3 1 2 3 4 2 1 4 5 11 6 2 11 15 14
29 32 32 27 21 19 20 21 21 20 21 14 22 25 19 14 12 11 4 2 4 3 1 1 1 2 3 2 3 2 1 1 1 2 1 0 6 11 9 4 5 7 12 14
27 28 29 26 23 23 21 20 19 18 21 24 25 16 10 8 11 12 11 4 3 1 2 2 2 2 2 3 0 0 1 1 0 1 0 1 7 5 9 3 4 6 7 4
26 27 29 26 21 23 22 21 21 20 24 21 23 14 12 9 11 13 12 12 5 5 4 2 1 2 3 2 3 2 1 3 3 2 3 4 7 6 6 6 6 6 6 8
25 27 28 27 23 22 24 24 20 19 25 21 24 16 13 17 16 15 16 18 13 12 6 5 4 3 4 3 5 7 5 4 4 5 6 6 7 8 6 6 7 8 8 8
25 27 28 28 25 22 23 23 17 19 22 30 29 9 6 10 12 16 18 21 18 15 8 7 5 6 7 8 10 8 8 9 8 8 8 8 6 8 9 8 9 9 8 9
25 27 28 27 26 22 24 25 21 23 23 26 25 11 7 10 9 12 17 21 24 16 11 10 5 8 9 6 5 2 2 1 2 7 9 8 10 10 11 11 11 13 15 16
25 27 27 27 24 21 21 22 23 22 20 18 13 9 16 8 1 7 12 18 20 16 12 14 12 10 10 13 18 11 10 9 9 10 11 12 14 17 18 19 18 17 16 16
24 26 27 27 21 19 22 17 15 22 20 12 11 11 12 7 4 1 6 13 17 13 16 13 13 11 13 11 5 5 7 7 9 10 12 15 15 16 19 21 22 22 22 20
24 27 28 26 18 19 17 8 10 13 20 21 21 21 14 20 10 9 6 9 14 14 17 18 12 15 13 7 8 11 11 13 14 14 16 16 18 19 17 17 18 22 23 26
23 26 28 27 22 17 9 7 4 7 11 19 22 22 28 22 14 8 6 12 11 6 9 9 13 23 19 21 21 22 22 22 20 19 20 22 21 19 18 18 18 19 20 19
23 26 26 24 17 12 4 5 4 6 4 12 23 25 28 24 11 7 8 5 7 6 7 10 7 13 12 12 11 13 15 15 16 18 20 21 18 17 19 21 22 22 22 23
22 25 26 14 9 4 3 3 4 6 5 23 26 26 26 22 5 4 8 7 7 4 6 7 6 8 5 6 8 9 13 16 16 16 16 16 15 14 15 16 17 17 16 18
23 24 13 7 4 3 3 4 8 13 19 24 25 25 23 9 3 6 6 6 6 5 6 5 7 7 7 6 7 7 6 6 6 6 7 8 8 8 8 8 9 11 12 14
20 15 9 4 3 2 6 15 19 21 21 22 22 19 18 12 8 6 5 6 4 5 6 6 6 6 8 7 5 4 1 2 4 4 4 5 5 4 2 3 4 6 8 10
16 6 5 7 7 9 15 19 22 20 22 23 23 17 13 9 8 6 6 5 5 6 6 8 5 7 9 10 9 7 6 4 4 4 4 5 4 4 5 7 9 10 11 9
14 9 8 13 13 14 18 21 21 20 19 19 16 9 6 6 5 5 6 4 3 3 7 9 9 12 12 11 13 10 9 7 4 1 3 6 8 10 12 14 15 16 15 14
8 8 12 15 18 18 18 20 21 19 17 18 10 5 6 8 4 4 2 3 3 5 9 11 13 13 9 12 14 13 11 8 5 5 8 11 15 18 19 18 16 13 12 12

GFSNW_700_spd_087.txt.gz
Wind_Speed
39 42 42 36 29 23 24 20 15 15 13 11 4 2 6 4 7 7 12 16 16 14 15 12 5 10 10 16 21 33 31 11 15 21 11 23 25 21 27 8 4 3 1 2
37 40 41 39 32 25 23 21 16 16 13 9 4 2 4 5 4 9 7 14 11 10 12 4 9 11 18 7 21 23 32 13 13 5 10 19 26 28 27 33 17 12 4 2
36 39 40 39 32 25 23 19 16 15 14 12 10 5 5 6 3 5 8 8 7 5 4 9 12 10 12 14 2 13 20 15 14 8 15 26 27 30 30 27 12 12 10 7
35 39 39 39 32 25 25 20 18 16 14 11 8 10 10 7 5 2 6 3 10 15 8 4 10 12 6 9 11 10 9 6 7 10 7 26 33 33 37 39 34 12 14 16
34 38 41 40 32 24 22 22 20 18 15 14 10 7 9 9 8 8 6 7 8 10 9 8 10 9 7 7 9 9 8 8 7 8 8 14 21 29 33 32 38 29 18 16
32 36 39 41 34 27 24 22 21 19 16 12 10 8 10 10 13 3 5 8 7 6 6 3 3 5 7 6 6 4 4 8 4 3 7 6 7 26 32 30 34 34 28 22
29 35 38 41 37 28 23 21 22 21 18 11 11 9 12 11 9 9 3 5 7 5 7 2 1 2 4 7 3 1 4 4 3 8 11 1 3 10 25 24 25 24 25 22
27 32 38 40 38 29 23 22 22 19 19 9 14 15 10 8 10 8 6 6 5 3 5 3 3 3 2 4 3 1 3 3 2 5 5 2 1 4 17 23 24 23 23 18
24 29 35 36 36 29 24 23 22 20 18 18 15 9 15 16 11 8 6 6 4 4 4 3 2 2 3 2 2 2 2 3 2 4 2 2 2 4 8 11 16 16 19 18
22 26 29 35 34 28 25 24 22 20 14 18 18 24 22 17 14 10 7 4 5 3 3 2 2 1 3 1 3 3 2 1 2 4 1 1 4 6 10 7 3 5 11 13
20 23 27 32 35 29 24 23 23 25 16 17 23 20 14 9 9 7 6 2 2 3 2 1 2 2 3 2 3 2 2 1 1 1 1 1 4 8 7 1 2 4 9 11
18 21 26 30 35 32 23 23 24 27 23 17 19 17 14 10 9 7 6 6 2 4 2 2 1 3 3 4 1 1 1 1 1 1 0 2 7 6 7 2 3 5 6 8
16 20 24 28 33 33 25 22 26 26 24 20 9 19 17 16 14 11 10 11 6 2 3 3 2 2 4 3 2 3 1 2 2 1 3 3 7 5 7 5 6 5 5 6
15 19 22 27 31 31 25 23 28 27 29 16 23 18 14 12 12 14 12 15 14 7 8 3 4 4 4 4 5 7 5 4 3 4 2 4 6 7 7 6 7 7 8 8
14 18 22 26 29 28 22 22 25 27 24 23 12 11 8 11 9 10 14 14 17 16 11 8 5 6 7 8 10 6 5 6 5 3 4 5 4 7 8 8 8 8 9 9
13 18 21 24 27 25 19 21 17 18 21 19 12 16 16 15 5 8 11 14 16 17 14 8 8 6 8 7 4 0 4 1 4 4 7 6 8 9 9 9 10 11 12 14
11 17 21 23 26 23 17 17 9 10 17 23 10 13 18 21 10 3 5 10 13 17 16 13 12 10 10 14 16 10 12 9 8 8 9 9 10 12 14 15 17 18 18 17
11 16 21 23 24 21 15 12 5 10 13 12 13 10 14 17 11 6 2 4 9 14 15 12 12 10 12 11 8 3 6 8 8 9 10 11 13 14 15 16 19 21 21 21
12 16 20 22 23 23 14 8 7 6 12 10 14 19 12 15 12 5 3 0 6 11 17 17 14 16 12 8 10 8 6 9 13 15 16 15 16 16 17 19 20 18 18 19
12 15 20 24 25 22 13 7 6 7 6 13 22 24 22 18 8 3 3 7 7 6 10 12 16 25 20 21 20 20 22 21 21 21 20 20 20 20 22 21 21 20 20 20
13 14 18 21 23 17 6 3 4 5 5 11 24 26 27 25 11 3 5 3 5 5 9 8 7 16 8 10 14 16 17 17 18 18 17 18 19 23 24 20 21 22 22 22
13 14 18 20 12 4 2 2 3 5 3 19 25 26 26 21 6 3 3 6 5 5 6 8 7 14 11 9 8 11 12 14 16 18 18 17 18 19 18 17 17 17 18 18
14 14 14 8 5 4 3 2 4 10 18 22 25 26 22 9 4 5 5 5 6 4 6 5 9 6 8 10 10 8 9 9 8 8 9 9 7 7 7 7 7 8 10 11
13 8 9 5 5 5 7 8 13 17 19 19 21 23 16 16 10 8 6 6 6 5 6 7 11 9 9 10 8 7 6 4 2 2 2 3 3 3 2 3 5 8 9 9
12 6 4 6 8 12 13 15 17 19 20 21 22 22 14 11 10 6 7 5 6 6 6 9 11 8 8 8 9 9 8 5 3 2 1 1 4 6 8 10 11 13 14 14
12 9 9 11 13 16 16 18 18 18 20 19 20 17 6 5 6 6 7 4 4 4 8 12 13 14 13 12 12 13 12 9 6 6 5 5 9 12 15 17 18 17 16 14
8 9 11 14 17 16 16 18 19 19 17 15 13 6 5 10 7 5 4 3 3 4 6 9 12 13 13 12 12 16 15 12 10 8 7 9 13 17 16 13 11 10 10 11

GFSNW_700_spd_090.txt.gz
Wind_Speed
30 36 39 38 32 26 23 19 17 16 15 12 9 5 7 5 6 7 8 14 15 13 18 11 7 13 9 10 19 29 24 5 7 14 12 14 19 22 19 3 2 0 1 2
30 33 37 41 36 29 27 19 16 16 17 11 10 2 4 8 6 10 8 10 10 14 13 8 21 16 16 4 19 20 25 9 8 6 9 15 26 27 21 21 9 3 1 2
28 31 34 41 39 31 26 23 18 16 17 16 12 10 9 5 5 5 8 6 7 9 8 10 16 16 12 3 14 15 15 8 13 5 6 15 23 27 24 22 14 15 8 6
26 29 34 39 38 33 27 22 18 16 17 15 13 10 12 13 9 4 8 8 10 12 11 8 15 16 14 8 4 15 18 16 22 13 10 14 23 27 29 26 23 15 14 15
23 28 33 36 38 33 23 21 21 19 18 15 14 11 14 12 13 9 4 9 6 9 9 11 13 12 11 12 3 4 20 15 10 5 8 12 21 26 27 26 30 29 16 14
22 26 30 35 39 37 26 18 18 19 18 14 15 15 14 14 12 8 5 8 8 7 8 7 6 5 8 7 10 5 2 9 4 1 6 6 9 25 28 32 35 32 31 30
19 24 29 33 39 40 30 19 19 19 17 13 18 14 12 11 13 11 4 7 10 7 8 7 5 5 5 6 5 5 3 3 1 7 11 2 3 8 17 24 26 29 28 22
18 23 28 33 38 40 33 22 20 18 18 14 14 13 12 12 11 11 6 5 8 6 7 5 3 3 3 4 5 1 2 3 2 5 6 3 2 3 12 26 27 25 23 23
16 20 25 30 35 40 36 24 20 21 18 15 16 19 20 18 11 5 3 8 4 6 5 5 4 3 5 4 4 4 1 2 1 3 1 1 1 1 4 7 15 14 22 20
13 18 22 27 33 37 37 27 20 22 23 19 20 20 18 18 11 6 3 2 3 3 3 3 4 3 6 3 6 6 3 0 2 2 1 1 3 5 7 5 2 5 11 15
11 15 19 24 30 35 36 29 23 25 26 18 20 20 15 17 12 7 4 1 3 2 2 3 2 2 4 4 5 4 4 3 1 2 0 1 5 8 6 1 2 3 5 8
9 12 16 21 26 31 35 28 26 30 28 27 15 9 16 19 17 10 4 3 4 3 2 2 2 3 3 6 3 4 2 2 2 1 0 2 6 6 4 6 5 5 5 6
8 10 15 18 23 28 32 29 29 31 30 16 13 23 21 18 15 12 9 7 6 4 2 1 2 2 6 4 4 5 3 3 2 2 1 2 6 5 7 5 5 4 4 5
8 9 14 17 21 25 29 26 27 28 27 24 20 18 17 13 9 8 10 10 11 7 6 2 1 5 5 6 8 10 8 6 3 3 2 2 5 5 6 6 5 5 6 7
8 8 14 17 20 24 25 22 21 22 23 18 17 20 24 20 7 5 7 9 11 13 9 7 3 6 7 8 10 4 5 5 4 2 3 4 3 6 6 6 6 7 8 8
6 8 12 17 20 22 24 20 18 16 17 17 10 18 22 24 13 6 5 9 10 13 15 12 9 7 5 6 4 2 2 2 3 4 6 6 8 8 8 8 9 9 10 11
6 10 12 16 18 20 22 16 15 12 14 15 10 10 14 19 13 10 7 6 9 11 14 14 10 8 11 15 17 9 11 12 9 8 8 8 9 11 12 13 14 16 18 18
10 10 11 14 18 19 20 15 10 11 11 11 11 11 11 18 14 7 9 8 8 11 12 15 13 12 10 9 6 3 6 9 9 9 10 11 12 12 14 15 15 17 18 20
14 11 12 14 17 20 20 13 10 11 9 6 11 19 15 22 18 11 4 5 7 9 12 14 13 16 12 7 8 8 8 6 6 11 15 16 17 17 17 17 18 19 20 19
13 12 12 15 18 22 20 8 6 7 6 6 12 21 24 23 21 7 4 5 6 6 8 8 17 24 21 21 19 18 17 19 20 22 22 21 19 18 19 20 21 22 21 21
12 11 12 14 18 20 10 2 3 4 5 6 16 24 24 23 20 11 6 4 5 4 5 5 6 12 7 7 10 15 17 19 20 19 18 18 17 18 19 21 23 22 20 22
12 11 12 14 17 6 4 3 4 4 3 14 20 21 22 19 13 5 4 7 4 6 6 5 6 13 12 13 12 10 10 12 13 15 15 15 15 17 17 19 18 17 17 18
12 11 9 7 5 6 4 4 6 6 15 17 19 18 19 14 8 6 6 6 7 5 6 5 7 9 9 9 11 11 9 9 10 10 7 5 7 8 8 7 6 6 8 9
11 8 7 6 6 7 7 12 14 14 16 17 18 18 16 17 9 5 6 7 7 5 5 5 9 10 15 15 11 10 9 8 5 3 1 1 3 4 5 6 7 8 10 11
10 6 7 10 10 10 14 16 17 17 17 17 17 17 13 12 7 5 6 5 5 4 4 9 11 12 12 11 11 9 9 8 6 6 4 3 4 7 10 13 16 17 17 17
12 10 9 10 12 13 17 18 19 18 16 17 15 11 7 4 5 4 6 8 1 4 7 10 12 15 16 16 15 14 14 13 12 9 7 7 8 10 15 16 13 12 11 10
8 10 13 14 16 17 18 18 19 18 15 13 8 5 4 6 7 5 5 11 15 11 6 7 10 11 12 14 14 13 15 16 15 11 11 9 9 13 15 12 12 12 11 11

GFSNW_700_spd_093.txt.gz
Wind_Speed
20 24 28 32 33 27 24 20 16 14 18 13 10 4 6 6 5 8 9 10 13 18 18 13 16 14 11 5 19 26 12 3 9 14 6 13 10 22 16 1 3 3 2 4
18 23 26 32 34 31 27 21 17 12 17 15 13 7 6 7 8 6 8 9 10 12 16 7 21 23 16 7 19 19 15 4 7 4 7 11 22 19 16 12 3 2 2 7
17 23 25 31 36 33 25 20 15 14 17 16 15 12 13 11 5 5 9 8 9 12 14 13 17 22 19 10 14 13 10 7 5 6 2 9 17 20 18 16 8 3 0 11
15 20 24 30 35 34 28 21 16 14 16 15 15 14 13 11 8 5 7 5 9 12 10 11 17 18 13 3 12 11 11 13 10 10 5 10 14 23 23 22 18 11 8 9
14 17 22 27 34 34 26 23 19 13 15 15 14 14 13 12 10 7 2 6 6 5 7 10 14 13 14 9 2 14 14 6 12 13 11 11 15 16 23 23 25 22 21 14
12 15 20 25 31 35 30 23 18 17 15 14 15 14 13 14 11 8 5 7 7 8 7 7 5 6 9 11 9 3 17 12 6 1 4 3 5 18 24 28 29 23 25 18
11 13 18 23 28 33 32 24 20 19 16 13 13 14 15 15 15 10 3 7 8 7 8 7 4 4 4 6 7 9 2 5 0 2 8 2 2 3 13 19 21 24 24 22
10 12 16 20 26 30 29 26 23 21 20 12 14 13 16 17 13 10 5 6 6 4 7 3 3 2 3 6 6 5 6 2 2 1 4 7 3 2 5 20 20 21 21 21
10 12 14 18 22 28 30 28 28 26 23 17 13 13 15 16 11 4 4 6 3 3 5 5 4 4 4 2 1 3 1 2 3 3 1 1 2 2 3 9 5 9 14 15
11 11 12 16 21 25 29 29 31 31 27 18 18 14 13 13 14 7 2 2 2 2 2 3 3 3 4 3 4 5 2 1 2 2 1 0 1 3 7 3 1 3 8 14
10 8 10 14 18 23 28 29 30 31 32 24 19 15 12 13 10 12 5 1 2 0 3 4 3 3 4 4 4 4 4 3 2 0 0 2 1 5 1 2 2 3 7 12
9 6 8 12 17 21 25 27 30 30 29 27 23 21 17 12 9 5 3 2 1 3 3 2 2 3 3 4 2 4 2 3 3 3 2 1 3 4 5 7 6 6 7 7
10 4 7 9 15 19 21 24 27 27 22 27 27 26 22 15 7 2 4 5 4 3 2 0 3 2 5 3 2 2 2 2 1 1 1 0 4 4 4 4 3 2 3 1
11 4 6 7 12 16 19 20 23 24 17 24 23 25 24 18 11 4 2 4 6 6 4 1 2 5 5 6 7 7 5 5 2 1 1 2 5 5 6 8 6 5 5 6
11 6 6 6 10 14 17 16 17 21 19 17 16 21 23 22 15 9 4 4 6 10 9 7 5 5 10 10 8 1 2 4 4 3 3 4 4 6 6 6 6 6 7 7
10 8 5 6 9 13 16 16 15 17 16 17 12 15 21 22 18 11 8 6 7 9 12 14 14 11 8 7 5 2 2 3 1 3 5 5 7 6 8 9 10 10 9 10
12 11 5 7 9 12 15 15 14 14 13 12 8 10 16 18 19 14 10 8 7 10 12 15 15 9 10 15 19 10 11 10 8 7 6 5 6 7 10 12 13 14 15 16
14 12 5 11 9 11 15 16 13 11 12 8 5 11 13 17 20 19 13 10 9 9 10 14 11 13 14 10 6 6 6 9 14 12 10 9 10 10 11 13 15 16 16 16
15 10 9 13 11 11 15 17 11 8 7 5 6 13 14 19 19 18 12 9 11 11 11 10 11 16 12 6 8 6 7 7 6 7 9 12 15 17 16 16 17 17 18 19
14 10 10 13 11 12 16 15 5 5 4 5 6 15 20 19 17 14 7 4 5 7 8 7 11 20 18 20 21 19 16 15 15 18 20 22 21 19 15 15 16 17 19 22
15 13 11 12 11 13 14 5 1 3 4 3 11 19 18 19 17 13 3 4 4 5 4 4 4 7 4 7 10 13 17 19 19 20 19 18 18 17 16 17 19 19 21 22
12 10 11 10 9 8 5 4 1 3 2 8 16 18 17 17 14 6 4 4 4 5 4 5 4 5 8 9 11 12 11 10 10 11 11 11 12 11 11 10 12 13 13 13
9 9 10 7 7 8 5 5 2 4 10 14 16 15 16 12 9 6 4 4 6 6 5 4 6 10 10 10 10 12 10 9 9 8 7 3 0 2 3 4 4 5 6 7
11 10 10 7 6 8 9 4 8 10 12 14 15 13 11 12 10 4 5 6 6 6 4 5 11 12 11 12 13 14 11 9 8 7 6 4 1 2 4 6 8 11 13 14
11 8 8 12 13 11 8 10 12 13 14 15 14 13 9 9 5 4 5 4 6 4 4 10 13 16 17 17 16 14 14 11 10 10 9 6 4 6 8 11 14 13 12 12
12 11 9 10 11 11 12 14 15 15 14 14 13 6 5 4 3 5 6 5 4 15 18 16 16 17 19 18 18 19 18 18 16 15 13 10 8 8 10 13 12 10 10 10
9 13 18 18 18 16 15 16 16 15 13 10 6 3 4 4 7 7 8 12 18 22 23 22 21 21 20 17 15 16 16 16 18 16 15 12 11 9 9 11 11 10 10 10

GFSNW_700_spd_096.txt.gz
Wind_Speed
10 13 17 23 29 28 26 18 14 12 14 13 7 6 3 3 4 4 6 7 10 12 16 12 16 14 5 8 20 19 10 4 6 6 3 10 12 9 8 2 2 0 1 3
10 11 15 22 26 28 27 19 14 10 13 10 12 9 9 4 4 2 5 6 10 10 15 8 20 20 7 11 20 16 10 5 6 2 4 6 12 15 12 9 3 1 1 8
8 10 13 19 25 29 27 18 12 8 13 12 12 7 8 8 3 2 4 6 6 8 11 11 16 20 6 13 20 17 8 5 5 2 1 8 11 14 15 11 2 1 14 11
7 8 11 17 22 28 26 20 13 12 8 10 10 10 7 6 5 2 1 3 6 7 7 8 14 19 8 8 17 14 8 6 8 8 5 2 6 15 18 20 14 3 12 7
7 8 11 16 21 24 24 22 17 9 9 10 9 9 8 9 6 5 2 3 3 6 4 7 10 12 9 7 8 13 13 3 5 7 11 11 10 11 17 20 20 19 11 3
7 7 9 13 18 22 23 24 20 15 11 7 7 9 10 10 7 5 5 3 3 3 4 3 2 5 5 7 5 9 11 6 1 3 4 7 6 16 21 22 21 21 18 12
7 5 8 12 15 20 22 24 23 17 11 6 7 6 9 11 8 3 4 6 7 4 6 4 2 3 4 6 8 4 6 6 4 2 4 2 1 1 11 18 23 24 23 15
9 5 7 9 12 17 21 24 24 22 12 9 8 8 7 8 6 2 1 3 3 2 3 4 3 2 2 4 5 6 6 3 2 1 3 3 2 2 4 21 23 25 27 23
11 6 7 6 10 14 18 24 24 25 18 15 12 7 4 4 3 4 1 3 2 2 3 4 3 2 1 2 1 2 2 2 3 1 1 1 1 0 3 8 7 15 23 18
14 8 7 4 7 11 17 23 24 25 20 22 20 12 6 2 4 3 1 2 1 2 3 3 3 2 3 2 3 2 1 3 3 2 1 1 2 3 10 5 3 7 11 16
15 10 7 3 4 9 14 20 24 22 23 28 26 22 13 4 3 1 1 2 0 1 3 4 3 2 3 3 3 3 3 1 0 1 1 1 3 6 1 2 1 3 8 12
16 12 8 4 2 7 12 16 22 18 24 26 29 27 22 14 6 4 4 3 2 3 3 3 2 2 4 4 1 4 1 2 2 1 1 3 6 6 5 5 7 7 8 10
18 13 9 6 1 6 11 12 17 20 24 23 27 29 26 19 11 4 4 2 2 3 2 1 3 2 5 2 4 3 3 3 2 2 0 2 5 8 6 6 5 6 7 6
20 15 10 7 2 7 9 11 13 19 10 19 20 23 25 22 16 8 3 1 3 4 3 2 2 1 3 7 7 9 7 5 2 2 2 3 5 7 6 7 5 5 3 4
21 16 12 9 3 4 8 10 10 13 14 13 13 18 19 21 18 12 7 3 4 6 8 7 5 4 7 10 10 1 2 4 4 4 3 3 5 6 6 4 7 5 5 6
23 17 13 9 4 3 6 8 9 9 10 11 9 15 16 17 18 15 10 8 6 8 8 10 13 11 9 5 6 4 2 1 3 5 5 6 7 6 7 8 8 9 10 10
24 18 15 11 7 6 6 6 9 6 8 7 4 7 13 13 17 17 12 9 8 7 8 11 12 11 11 13 18 11 11 11 9 6 7 6 7 8 9 11 12 13 13 14
24 22 17 12 10 10 7 8 9 5 4 4 4 7 9 13 15 16 14 9 8 7 7 8 9 10 12 8 7 7 7 6 11 16 13 12 11 10 12 13 15 16 17 18
27 23 16 13 12 15 11 11 10 5 2 1 4 12 8 16 13 11 11 8 7 7 7 5 5 7 5 7 9 9 8 8 9 8 9 11 12 14 17 19 19 20 20 20
27 22 18 16 13 16 13 14 9 6 5 2 3 13 12 13 12 9 8 4 4 5 4 6 4 7 9 14 20 17 16 16 15 14 15 17 20 23 22 18 18 18 19 21
29 23 18 17 14 14 14 8 7 6 4 4 6 11 13 13 12 6 2 2 3 2 4 2 3 5 9 10 9 10 13 17 22 25 27 26 24 21 20 19 18 20 21 22
27 20 18 17 13 13 10 8 7 6 5 4 7 10 11 11 11 4 1 2 2 3 4 4 4 11 9 11 12 10 9 12 14 15 15 16 15 15 15 14 11 11 10 10
24 22 18 9 13 13 13 10 8 6 4 5 8 9 8 8 7 4 2 3 4 3 4 4 9 12 13 14 14 12 13 13 12 12 12 13 10 8 5 4 4 5 7 9
24 19 15 11 8 11 16 14 9 4 4 7 9 8 6 5 5 3 3 4 3 4 5 4 9 13 15 17 19 20 18 16 14 12 12 11 10 9 7 7 8 11 14 15
19 13 9 15 16 11 12 15 7 5 7 10 10 9 6 5 5 3 4 4 5 6 2 10 14 17 18 19 21 21 21 20 19 15 15 15 14 12 10 10 11 12 11 10
15 13 10 13 17 18 17 14 9 8 10 12 11 6 4 5 4 6 7 5 7 7 11 16 18 18 19 21 22 22 22 23 23 21 20 21 21 16 12 10 10 10 9 9
12 15 17 14 12 11 13 13 12 11 12 11 7 3 4 4 6 7 9 11 15 17 23 25 24 24 22 20 20 22 23 20 19 20 21 19 19 17 15 9 9 9 9 8

GFSNW_700_spd_099.txt.gz
Wind_Speed
10 9 10 13 19 24 26 20 14 12 12 10 4 4 2 2 1 2 3 4 7 7 10 11 10 7 1 9 15 9 3 1 3 1 3 12 10 7 6 5 2 4 4 5
12 9 9 11 17 23 23 18 14 9 10 6 5 4 6 2 2 2 1 4 6 6 7 6 17 10 4 9 15 6 4 1 3 1 2 7 10 8 6 3 4 3 4 6
12 10 8 10 15 20 20 18 12 9 8 5 3 1 3 4 2 2 0 4 4 4 4 7 10 17 4 12 13 12 7 4 5 5 3 3 7 11 10 6 3 1 11 13
16 11 8 8 13 16 18 17 11 10 6 5 3 2 3 3 3 3 2 3 7 5 6 6 11 16 4 7 14 14 4 3 5 7 4 3 4 10 14 14 5 4 7 10
16 11 8 6 10 13 16 17 14 9 5 4 2 2 2 3 2 2 3 3 3 3 2 4 10 12 6 1 11 12 12 1 6 6 9 9 9 11 15 17 12 11 3 4
18 12 8 5 8 11 15 18 16 10 5 2 2 1 2 3 3 3 3 2 3 2 2 4 3 5 6 7 2 12 7 6 4 4 6 7 6 14 15 15 12 10 6 4
21 15 8 4 6 8 13 17 16 12 8 3 3 5 4 5 3 3 2 1 3 2 2 2 3 4 6 8 8 1 5 7 5 1 7 3 2 6 15 18 14 16 16 11
20 16 9 6 5 6 11 15 15 14 9 7 3 3 4 2 2 4 3 1 1 1 2 4 0 1 5 8 8 9 3 2 5 4 2 5 3 2 6 15 15 21 21 21
24 16 9 10 6 4 8 13 13 16 15 11 7 2 1 2 3 4 3 1 2 3 4 4 2 2 2 1 3 6 6 4 4 6 4 2 1 3 5 7 9 17 24 25
24 17 14 9 6 1 6 11 12 16 16 18 14 9 2 3 3 4 2 3 4 3 4 2 2 1 1 1 3 1 3 4 7 6 3 1 3 2 5 5 2 9 14 19
26 19 15 10 7 2 2 8 10 13 17 21 21 17 12 3 6 5 4 4 3 3 1 2 0 2 2 2 2 1 1 2 1 2 2 1 3 2 1 4 4 5 8 11
29 21 16 12 9 4 2 4 9 12 16 19 22 22 19 13 5 7 5 5 4 2 3 1 1 1 3 4 3 7 1 1 2 2 2 4 4 5 3 2 1 2 3 9
30 23 18 15 11 6 4 3 6 6 10 18 20 21 20 17 11 6 5 4 3 3 2 1 0 1 3 3 2 4 7 6 3 3 4 3 4 6 6 4 5 5 5 7
29 24 19 16 12 8 4 3 4 6 6 12 15 16 18 16 13 8 3 1 1 3 3 2 1 1 1 2 5 9 4 6 5 4 5 4 6 8 7 6 5 3 2 5
29 26 21 17 13 10 6 2 3 5 6 6 10 12 13 13 12 10 6 3 3 4 6 7 5 4 5 7 6 5 5 4 2 3 5 5 5 8 8 8 11 9 5 6
33 28 23 20 15 11 8 2 3 1 3 2 3 10 9 11 10 8 5 4 4 3 6 7 8 10 8 5 3 3 4 4 5 7 7 7 7 6 7 8 7 7 9 10
35 30 25 21 17 12 8 4 5 3 1 1 0 3 8 11 11 8 6 5 4 4 4 5 8 9 8 9 12 14 12 12 13 11 8 8 7 8 9 10 11 12 13 14
36 31 27 22 17 13 10 8 8 5 4 3 1 1 3 11 11 8 8 5 4 2 3 5 5 6 7 7 11 11 7 8 8 11 16 16 13 12 12 13 13 15 17 18
37 32 27 20 19 16 12 12 11 8 8 5 4 3 1 8 10 9 8 3 3 1 2 2 3 4 6 11 14 12 11 9 8 9 10 11 14 15 15 16 18 22 23 23
38 34 27 24 21 16 15 12 15 12 13 10 8 2 3 6 8 7 5 3 3 3 2 4 4 7 8 8 10 17 18 15 15 16 16 16 16 19 22 25 27 24 22 22
40 34 29 24 19 14 15 10 11 8 7 9 11 4 4 6 5 6 3 3 2 0 3 2 4 8 9 9 12 13 13 15 19 20 21 25 28 29 29 26 24 24 23 23
39 30 26 20 18 12 9 8 10 9 9 10 7 5 6 6 6 3 3 4 3 2 4 3 5 11 11 10 12 14 15 15 14 17 19 19 20 22 22 21 19 17 13 10
33 32 25 17 15 11 11 13 11 10 9 9 5 5 6 5 4 4 3 5 4 3 3 5 10 13 12 13 15 16 18 18 20 19 19 18 18 19 19 15 11 10 10 12
35 28 24 15 10 11 17 18 16 12 10 6 4 6 5 7 5 4 4 5 4 4 5 8 11 12 15 18 19 20 19 20 20 21 21 21 19 17 16 15 13 13 14 17
33 19 16 20 15 10 13 19 18 13 8 5 5 7 8 7 6 4 5 4 5 7 8 9 9 11 14 17 20 21 20 20 20 21 23 24 23 21 20 19 16 15 15 15
26 17 13 15 22 20 15 17 19 13 9 6 7 6 5 6 5 6 7 5 7 9 13 14 17 22 25 25 24 24 24 23 22 21 22 24 25 25 26 23 19 16 15 13
17 18 16 11 14 18 20 17 16 14 11 8 7 5 5 4 6 7 8 10 14 17 19 23 26 31 29 27 28 26 25 25 23 21 22 21 24 25 22 21 20 17 15 13

GFSNW_700_spd_102.txt.gz
Wind_Speed
19 17 10 9 11 16 20 23 17 17 12 11 8 5 4 5 2 1 3 5 7 8 9 12 13 7 4 12 9 4 4 5 5 4 4 5 9 7 9 6 5 5 4 3
21 22 11 7 10 14 17 20 16 13 10 7 7 6 5 4 3 2 2 2 5 4 11 7 18 10 6 13 10 1 2 2 1 1 3 5 11 8 6 5 8 6 3 2
24 23 14 7 9 11 14 17 12 12 7 7 4 5 5 4 2 3 0 1 3 3 6 7 11 13 5 12 11 9 5 3 4 3 3 2 10 14 7 2 5 8 9 9
28 26 15 8 7 9 11 14 12 12 8 5 5 5 3 1 2 3 1 1 5 4 5 3 9 12 5 6 5 8 4 2 3 5 6 5 4 10 12 10 2 4 10 9
27 31 14 7 6 7 8 12 12 11 7 6 5 4 4 3 2 2 1 3 2 3 3 3 7 10 5 1 6 10 7 2 7 6 5 8 6 8 12 11 6 4 4 6
30 18 15 10 6 6 6 9 11 10 9 5 4 6 5 5 4 3 4 2 4 0 2 3 4 6 9 7 3 9 5 2 5 3 6 5 7 13 15 13 6 5 3 2
26 22 15 11 6 4 4 7 9 8 6 5 4 7 8 7 5 5 3 2 3 2 2 4 5 6 9 12 10 2 4 5 4 2 5 1 1 3 13 13 11 13 11 7
31 25 17 14 6 4 3 5 6 8 7 5 4 4 6 6 3 5 4 2 0 1 4 5 2 1 3 7 10 9 3 4 6 3 7 5 7 3 3 12 6 10 15 15
32 26 19 13 8 6 3 2 5 8 6 7 5 2 2 5 5 6 4 3 3 2 4 5 4 3 2 2 3 5 4 4 4 7 3 3 2 7 4 4 4 6 12 19
34 27 20 15 11 8 4 2 5 8 8 11 9 5 1 5 6 6 5 5 5 3 6 3 3 2 1 2 4 4 6 5 8 12 3 1 7 7 3 3 4 7 9 10
34 32 25 17 13 10 7 4 4 6 8 14 14 12 6 4 7 7 7 6 4 3 3 3 2 1 2 4 1 1 1 3 3 2 2 3 6 3 3 4 5 7 6 6
37 33 27 20 15 12 9 6 4 6 7 12 15 15 13 10 8 8 6 4 4 2 3 3 3 2 2 2 1 3 1 3 3 2 3 7 6 4 4 6 4 4 2 6
39 34 26 21 16 13 11 8 4 3 1 11 13 15 14 12 9 8 5 3 2 3 3 3 3 4 3 1 3 2 4 5 2 1 3 6 4 4 5 3 1 2 1 3
40 36 27 23 18 16 12 8 4 3 2 6 10 12 13 11 9 6 3 2 2 3 2 1 1 2 3 2 3 4 2 2 1 3 7 4 6 5 7 8 9 5 3 6
41 38 30 24 19 17 15 10 4 3 3 3 7 9 9 8 7 5 3 1 1 3 5 5 5 4 2 2 5 6 2 2 4 3 3 4 7 7 9 12 6 11 6 4
39 36 30 26 21 19 18 14 5 3 3 4 2 4 6 7 6 4 1 0 1 2 3 4 4 5 5 2 2 3 7 4 4 7 7 8 7 8 9 6 5 6 4 6
44 36 31 27 23 20 17 11 8 5 6 5 4 2 2 5 6 5 2 1 1 2 2 2 4 5 6 6 6 12 12 13 13 12 11 10 9 8 9 9 9 9 10 11
45 37 33 29 24 21 19 13 8 8 7 7 4 3 3 4 5 3 3 0 1 2 2 2 4 5 6 7 12 12 12 11 11 8 8 12 15 14 13 13 13 13 13 14
47 39 32 28 26 23 18 13 8 10 8 5 6 4 4 3 5 5 4 0 1 2 3 2 3 5 6 6 8 11 13 14 13 12 12 9 10 13 15 16 15 17 20 23
45 39 34 29 27 22 17 13 13 14 16 15 13 11 7 5 5 4 6 2 0 1 2 3 5 11 6 5 6 7 10 14 17 16 17 18 19 17 18 19 21 25 28 28
48 43 35 28 27 20 17 11 8 8 8 12 17 15 8 6 6 5 3 3 2 2 1 2 4 7 4 5 8 8 10 11 12 13 14 17 20 22 25 27 28 28 25 24
48 40 28 27 24 16 11 9 10 10 10 9 16 15 8 6 6 5 5 4 3 3 4 3 4 2 4 7 10 11 12 13 14 16 17 17 18 18 20 20 22 22 22 17
46 38 29 21 18 13 13 15 11 11 9 10 16 11 8 5 5 5 5 4 4 4 4 4 8 6 8 10 13 16 18 18 18 19 19 21 20 20 20 20 20 22 17 14
40 30 27 16 11 14 20 21 17 15 11 12 11 8 5 5 4 5 4 5 4 4 5 7 7 11 13 14 14 15 17 19 19 20 21 22 22 22 21 21 19 18 18 17
34 22 17 20 17 12 16 22 20 17 12 11 9 7 6 5 5 5 5 4 4 7 8 10 11 14 16 16 19 24 28 30 27 25 24 23 23 24 24 22 22 22 21 20
32 14 14 21 23 15 14 13 15 14 16 11 8 6 4 7 5 6 7 4 5 7 9 13 16 19 22 26 29 31 29 28 28 26 26 25 23 23 23 24 24 25 26 22
17 20 15 20 22 20 19 15 15 18 16 11 7 4 6 3 6 6 6 8 11 14 17 19 22 26 29 31 29 29 28 27 26 26 25 25 24 23 23 24 25 23 23 22

GFSNW_700_spd_105.txt.gz
Wind_Speed
27 23 22 15 13 7 12 16 14 13 11 10 7 5 6 5 1 2 1 4 7 4 13 16 8 6 6 9 8 5 8 5 7 9 4 4 5 7 4 3 1 4 4 1
29 25 24 15 13 5 10 14 15 9 8 6 7 3 2 4 1 3 4 1 3 4 9 5 13 8 10 11 6 2 5 5 3 3 4 1 6 5 6 4 10 10 3 1
27 29 25 17 14 5 9 11 8 8 7 5 4 3 3 2 3 1 2 1 1 4 6 8 11 9 5 9 6 5 2 2 5 3 3 5 2 8 7 1 4 8 11 6
27 31 25 21 15 6 7 9 7 9 7 5 2 3 1 2 2 1 3 2 3 4 3 3 9 10 5 4 0 3 1 1 3 6 7 6 2 3 6 6 2 5 10 8
29 29 28 23 15 8 7 8 9 9 8 5 3 3 4 3 1 3 2 3 2 4 2 4 7 8 6 3 4 5 3 2 9 5 5 5 4 3 7 8 7 5 7 13
29 34 35 23 18 10 6 6 8 7 6 4 4 4 4 2 3 4 3 2 1 2 2 4 4 7 10 6 2 6 2 3 7 5 2 1 5 4 9 9 7 5 9 8
29 38 28 26 18 11 7 5 5 6 5 4 3 3 3 4 4 5 4 3 2 4 5 5 6 6 11 12 8 4 1 3 5 3 2 2 6 3 9 5 4 5 6 1
29 31 26 25 17 11 7 4 2 3 4 4 4 3 3 5 5 7 7 5 5 6 8 5 2 3 5 7 10 8 6 7 3 3 2 6 6 9 4 10 9 8 8 5
28 29 27 26 18 9 8 4 3 3 4 4 2 1 3 6 7 9 8 6 6 6 7 2 3 3 2 3 3 4 4 4 3 6 3 3 4 5 2 8 8 4 9 18
30 37 30 31 17 12 9 6 4 4 4 6 5 4 4 8 11 11 8 8 8 7 8 5 3 3 2 2 2 4 5 3 4 7 2 3 7 7 4 3 1 1 5 8
35 28 31 29 20 15 11 9 7 7 7 8 9 7 5 7 8 11 9 8 7 6 6 5 2 2 2 3 2 1 1 2 2 1 2 1 9 3 1 2 3 5 5 4
31 34 34 30 20 17 13 11 8 7 6 8 11 10 7 8 12 10 9 3 7 4 4 5 5 3 3 4 2 2 1 2 1 3 2 4 4 4 3 3 2 2 3 2
30 35 37 30 24 18 15 12 10 9 7 9 11 11 10 9 10 9 8 6 5 4 6 5 5 4 6 3 4 3 3 1 1 1 1 6 5 4 3 3 1 0 0 2
31 31 38 32 25 19 16 13 12 8 7 8 10 10 10 8 8 8 7 5 5 4 4 3 3 4 6 5 4 4 2 2 3 3 5 6 3 4 6 6 6 7 5 6
37 32 37 28 26 21 17 15 12 9 8 6 9 9 8 6 5 5 6 5 4 4 4 4 5 4 5 3 7 3 4 5 5 4 4 6 5 6 6 8 12 6 8 6
43 35 37 33 29 24 19 17 11 8 7 8 5 6 6 5 4 4 5 5 3 2 2 3 5 5 7 6 7 8 7 5 7 8 8 9 9 8 8 7 7 3 4 9
40 41 41 35 25 25 23 18 11 9 5 5 5 7 6 4 3 3 4 5 5 4 4 4 4 5 7 9 12 14 12 11 13 13 12 14 11 10 9 8 8 8 8 9
45 42 40 35 28 26 26 16 14 10 5 5 4 6 10 5 3 3 3 5 6 8 6 5 6 6 7 6 6 8 10 12 11 10 11 9 13 16 17 16 14 14 15 14
46 45 36 32 31 25 26 15 15 12 9 5 6 8 7 8 5 3 2 4 5 7 6 7 5 6 5 4 3 5 9 9 12 14 15 13 13 11 12 14 18 18 19 20
51 45 38 34 34 24 25 19 12 12 13 13 14 11 10 7 6 4 3 4 5 5 6 5 6 9 9 6 5 5 6 8 8 9 14 16 19 21 21 20 19 22 23 24
55 48 39 33 31 23 23 12 10 9 8 13 21 20 14 11 8 7 4 3 3 3 3 4 4 4 7 7 6 7 7 9 9 9 11 12 15 18 21 22 23 25 28 28
54 48 32 29 29 19 13 11 10 9 10 9 15 19 17 11 9 7 5 5 5 3 5 4 4 5 4 5 7 8 9 12 14 15 16 17 18 20 22 23 23 20 21 21
53 40 32 27 23 17 14 18 15 12 10 9 12 18 17 11 9 7 5 5 4 4 5 5 6 5 3 5 8 11 13 14 15 17 18 19 21 22 23 24 25 25 23 21
51 38 32 16 15 15 17 23 18 14 9 8 13 17 12 11 8 6 5 6 5 4 5 4 3 4 8 10 12 14 17 21 24 28 29 28 27 26 24 24 25 26 24 23
38 18 25 19 19 15 19 23 20 18 15 9 16 14 11 9 6 6 6 5 5 6 4 2 6 9 12 16 18 21 24 28 31 29 28 26 24 26 26 25 25 25 28 27
32 13 16 25 25 18 19 20 21 17 16 15 16 11 6 8 6 7 7 5 4 3 4 8 11 14 16 20 25 28 29 28 27 27 27 27 25 25 24 25 25 24 27 30
17 22 18 25 27 18 19 19 16 13 17 20 14 8 8 5 6 7 6 5 7 9 11 13 16 19 23 27 27 26 26 26 26 26 26 27 25 24 25 24 25 25 25 27

GFSNW_700_spd_108.txt.gz
Wind_Speed
31 38 26 28 22 17 15 10 7 7 3 3 2 4 4 4 6 6 4 2 3 3 10 11 6 1 3 3 4 7 10 7 6 11 10 7 7 6 5 3 2 5 2 2
28 29 31 27 21 17 13 9 7 4 3 3 3 5 4 4 5 6 6 2 1 3 8 4 7 4 6 4 3 5 10 8 4 4 9 8 5 4 1 4 5 7 1 3
30 24 36 28 22 19 13 7 3 3 5 5 5 3 5 5 5 2 6 3 4 7 6 7 8 4 4 3 1 5 5 5 7 3 3 5 3 4 4 4 6 8 6 9
26 25 32 29 24 16 13 6 3 3 3 6 6 5 6 7 6 4 6 3 5 5 3 3 7 7 3 4 1 1 4 2 5 4 2 0 4 2 2 5 6 5 8 9
14 28 34 31 24 20 12 7 4 4 5 4 5 7 8 7 7 5 6 8 4 6 4 5 4 5 2 1 2 1 3 3 8 8 4 3 4 3 2 0 5 6 12 12
15 30 31 29 25 18 12 6 5 4 3 3 5 7 8 9 8 7 5 6 4 7 6 3 5 6 7 4 3 4 1 3 4 5 6 6 6 3 6 4 4 8 10 12
26 28 31 35 28 19 13 6 6 3 2 3 5 5 8 9 8 7 7 7 6 8 8 7 6 8 12 10 8 5 3 5 5 3 2 3 8 3 6 6 5 7 6 9
27 32 34 34 29 19 13 7 5 2 2 3 5 6 9 10 10 11 9 8 9 9 11 7 3 3 5 8 9 6 6 7 4 4 5 8 6 7 7 7 3 9 7 6
28 26 36 30 26 19 14 8 5 2 1 3 2 7 10 10 12 13 12 10 10 11 9 4 1 2 1 2 2 4 5 6 6 4 3 3 5 3 8 8 7 6 8 7
24 26 28 36 27 21 14 8 6 4 1 3 4 7 9 12 14 13 13 12 11 10 9 7 3 3 3 2 2 3 4 3 3 6 3 5 4 3 4 6 3 6 9 11
31 32 39 44 29 21 13 10 8 6 4 4 6 8 10 10 11 13 13 13 12 11 10 7 4 5 6 4 3 1 2 2 3 2 2 2 5 2 2 1 5 3 3 5
31 30 33 41 23 20 14 12 11 7 4 5 9 9 10 12 13 11 11 6 12 7 7 6 6 6 8 8 5 3 2 2 2 2 2 1 3 1 2 1 1 1 2 2
32 28 35 34 21 19 15 14 11 9 8 8 10 12 12 13 12 10 10 8 8 6 6 6 5 5 11 7 6 6 4 3 5 3 4 3 3 2 1 4 1 2 2 2
32 31 40 36 23 19 16 16 14 12 6 9 11 11 13 12 11 10 7 7 8 7 7 6 6 5 9 8 7 9 8 7 5 6 6 5 3 4 6 8 3 5 10 8
37 32 37 38 29 20 20 19 18 12 8 7 12 11 11 11 10 9 8 7 7 7 8 7 7 7 8 9 7 11 9 8 7 7 6 6 6 7 7 8 10 10 9 10
37 39 36 40 30 22 21 20 18 14 11 12 10 9 10 9 9 9 8 7 7 6 7 6 7 7 8 8 10 11 11 9 8 7 8 9 9 9 8 8 8 7 9 11
37 33 42 43 32 23 22 19 14 16 15 12 7 10 10 9 8 8 8 8 8 7 6 6 6 7 9 10 14 9 13 12 13 12 14 14 14 13 10 10 9 10 10 11
40 39 42 39 36 24 23 16 11 17 16 11 6 6 15 10 9 9 8 9 10 9 7 6 7 7 8 5 5 8 10 12 13 15 16 15 14 13 16 17 17 16 15 16
40 48 45 39 32 28 26 19 12 18 16 8 8 9 11 15 11 8 8 8 10 9 9 11 7 9 7 7 5 5 7 7 8 11 13 14 15 16 16 15 16 17 20 21
42 49 44 41 32 30 29 23 14 17 17 15 11 12 11 12 13 10 7 7 8 6 11 9 12 13 12 11 9 7 7 7 8 10 10 11 14 19 21 23 23 24 25 25
46 53 43 38 36 25 26 15 15 11 11 16 25 20 15 15 12 9 7 5 5 5 6 8 6 7 10 11 11 10 10 10 11 11 12 14 15 17 19 20 22 23 26 28
53 49 38 35 35 18 15 13 13 11 15 11 18 23 23 18 15 10 7 6 6 3 7 6 5 11 8 8 9 10 11 12 14 16 17 18 19 21 22 22 24 26 27 27
59 38 37 27 23 19 15 21 17 15 13 14 14 21 23 18 15 9 6 5 6 6 7 6 8 13 7 6 7 9 11 13 15 18 20 23 26 28 29 29 29 29 28 28
45 35 28 17 14 15 19 28 25 17 11 11 14 19 19 16 14 7 5 7 5 6 6 4 9 9 6 6 9 11 14 17 21 25 28 30 31 29 28 28 29 31 31 30
36 19 18 21 19 15 27 21 23 18 13 11 15 21 14 16 7 8 7 6 6 7 4 7 5 5 8 10 13 16 20 23 26 27 28 30 31 31 30 29 29 29 29 29
29 14 17 26 20 22 24 23 22 19 18 14 19 18 8 9 6 8 8 5 6 5 5 5 7 9 12 15 18 22 24 24 25 26 28 29 30 30 30 29 29 29 28 26
23 18 18 28 26 19 19 24 24 20 16 21 18 11 10 7 7 8 9 9 6 5 8 9 10 14 17 19 22 23 24 24 25 26 28 28 29 30 29 28 27 26 26 25

GFSNW_700_spd_111.txt.gz
Wind_Speed
23 33 15 25 23 30 24 17 11 10 7 6 5 5 5 6 8 7 6 3 3 4 7 8 7 2 6 4 6 9 13 10 9 12 12 8 7 9 10 4 3 8 3 3
31 18 24 24 22 21 16 14 9 10 9 6 7 8 7 8 8 9 8 2 3 3 6 4 6 4 6 5 8 8 11 7 2 4 9 9 7 8 10 8 6 7 3 2
30 22 29 21 24 24 19 12 8 11 10 7 9 8 9 9 8 9 8 4 6 5 5 7 7 3 3 1 4 6 5 8 8 4 5 6 5 4 7 4 7 9 8 11
18 22 28 24 28 23 15 12 7 5 6 9 9 9 9 10 9 6 8 4 8 4 2 6 8 5 5 2 3 4 6 6 7 4 5 6 8 5 6 10 12 8 12 12
7 19 21 34 30 19 14 10 5 5 4 6 9 10 10 10 9 9 8 5 7 7 3 5 4 6 4 2 2 2 6 7 6 10 9 7 6 4 3 7 9 14 15 13
15 14 18 35 27 15 9 8 5 2 4 7 8 9 11 12 10 9 10 6 5 9 6 3 4 4 5 3 4 4 4 3 6 4 5 6 6 5 1 3 5 7 11 12
17 19 21 24 25 16 10 10 6 2 3 5 8 10 11 12 11 10 11 7 6 9 8 7 7 11 10 8 6 3 5 7 5 3 3 3 4 6 5 2 2 6 5 7
15 13 20 33 22 18 12 11 7 3 2 5 9 12 14 14 14 14 13 10 9 9 9 7 4 3 5 7 6 5 7 6 4 2 5 6 6 3 1 0 2 9 6 3
10 10 19 26 30 17 12 12 8 4 1 6 8 12 13 14 16 15 14 12 12 11 9 4 2 1 2 0 1 4 7 7 5 4 3 2 2 3 3 3 3 2 2 8
13 13 11 27 32 22 16 12 9 5 2 3 7 11 12 17 17 17 15 13 13 13 8 7 4 4 4 3 2 1 2 3 5 5 3 4 1 2 3 3 1 3 6 7
16 13 18 34 30 22 16 12 9 7 3 3 8 11 13 15 15 17 15 14 14 13 10 7 5 5 6 5 4 2 2 2 2 2 3 2 1 3 3 2 4 5 7 8
18 18 18 33 25 20 17 13 10 7 4 3 7 13 16 17 16 14 14 8 13 9 9 7 6 7 8 8 5 5 4 3 3 1 2 3 2 3 3 4 4 3 3 4
20 18 17 35 23 22 17 15 11 7 6 5 8 13 16 16 16 13 15 8 12 8 8 6 6 5 10 8 7 8 6 5 4 4 5 3 2 3 5 5 2 4 2 2
21 20 23 41 29 20 17 18 14 12 6 4 10 12 15 15 14 13 12 10 9 8 7 7 5 5 9 10 7 11 9 8 8 7 6 7 5 4 5 6 5 7 7 8
21 22 22 41 24 20 20 20 19 13 7 4 10 12 14 14 14 12 11 10 9 9 10 8 9 9 7 13 12 13 13 11 11 7 9 6 6 7 8 9 8 9 10 11
23 26 28 45 26 22 22 20 21 16 9 6 10 10 13 13 13 13 11 10 9 9 9 8 9 9 9 6 11 12 12 12 11 11 10 10 11 12 12 12 12 11 9 10
25 29 30 43 33 22 23 19 20 16 13 11 7 9 13 13 13 12 11 10 9 8 8 8 8 8 10 11 12 7 12 14 15 14 14 14 15 14 14 14 14 12 13 14
25 32 28 43 39 25 23 19 14 19 16 14 6 7 16 15 13 12 12 11 11 11 9 8 9 10 11 7 6 7 7 9 8 10 16 17 18 18 16 15 18 20 19 19
31 32 31 43 40 28 25 17 11 18 21 10 9 11 13 18 14 13 11 10 12 11 14 14 9 12 9 8 8 7 7 7 8 8 9 12 14 16 18 19 19 20 21 21
35 35 40 47 45 31 27 18 8 14 24 21 13 15 14 13 19 14 8 8 11 6 12 11 16 21 14 11 10 9 8 8 8 8 10 11 13 14 16 19 22 25 27 28
39 41 46 45 44 34 20 13 11 12 14 20 26 18 15 15 15 15 10 5 5 5 7 10 6 12 14 14 12 10 10 10 11 13 15 16 18 20 21 22 24 26 27 28
44 46 44 37 33 15 15 13 14 12 18 12 21 26 24 18 17 12 9 7 5 4 7 7 6 12 11 11 9 9 10 12 13 16 19 20 22 23 24 25 27 30 30 31
47 40 45 32 23 19 16 25 21 23 13 23 22 23 29 22 19 12 7 6 7 6 7 6 10 10 14 9 7 8 10 12 15 17 20 24 27 30 34 34 33 32 31 33
53 35 32 24 17 20 19 31 31 26 21 11 19 20 24 22 19 8 7 9 6 7 7 7 7 14 13 7 7 9 12 14 17 21 25 28 31 33 34 34 35 34 32 31
44 21 22 30 25 15 28 24 30 29 20 14 19 23 15 21 9 11 8 7 7 7 6 7 11 11 8 8 9 12 15 18 21 25 27 29 32 35 35 35 36 35 33 32
30 15 20 31 24 22 29 27 27 29 21 23 22 21 9 12 8 10 10 6 7 5 8 8 5 6 8 10 13 15 19 21 23 25 27 29 32 35 36 35 35 34 32 29
25 26 20 30 29 23 24 29 26 27 26 25 18 14 11 8 9 10 10 12 8 7 6 5 7 8 11 14 16 19 21 22 24 25 27 30 33 35 35 34 32 29 27 27

GFSNW_700_spd_114.txt.gz
Wind_Speed
13 10 27 28 34 25 31 24 14 12 11 11 10 7 8 8 10 9 6 4 5 5 5 7 6 7 6 6 7 9 10 9 10 9 10 11 16 17 17 5 4 8 5 7
9 19 17 24 11 29 19 17 13 12 13 9 9 10 10 10 10 9 5 4 5 5 6 4 6 6 6 7 10 8 8 6 4 2 5 12 14 17 16 8 8 10 4 3
14 8 14 11 22 22 20 11 8 12 13 9 11 11 11 11 11 10 7 5 7 6 6 8 5 5 3 4 6 7 5 9 8 3 6 11 10 16 17 11 12 12 10 8
17 5 13 13 22 18 15 12 5 3 5 11 12 12 10 10 9 8 9 7 8 6 4 5 6 3 4 3 5 6 5 8 7 6 9 12 12 15 16 15 12 9 13 15
10 11 14 17 16 14 15 9 3 3 3 9 13 13 12 9 8 10 9 8 6 6 5 6 5 3 2 2 4 3 6 6 10 10 8 9 12 11 13 15 13 11 12 15
14 10 4 9 25 17 14 3 2 1 3 7 12 11 11 11 9 8 10 7 4 8 6 4 4 4 4 6 6 6 4 5 6 4 7 7 8 12 8 8 11 11 10 12
8 7 11 6 24 13 10 8 4 1 3 8 10 10 10 11 12 9 12 9 6 6 9 8 9 9 10 9 7 5 6 7 6 4 1 4 3 6 7 6 7 9 10 7
13 8 10 6 25 18 9 7 6 4 2 7 11 12 12 13 13 11 11 10 9 8 7 6 5 4 4 6 8 7 7 5 3 2 4 7 5 3 4 5 6 8 8 7
8 4 4 6 26 15 8 7 6 5 1 8 10 11 12 13 13 14 12 11 11 9 7 2 2 3 1 2 2 5 6 6 3 3 2 2 3 3 1 2 3 9 4 6
4 5 1 3 22 17 11 9 8 5 3 5 9 12 12 15 16 14 13 12 12 11 7 4 2 1 1 1 1 1 2 4 4 4 1 2 2 1 1 2 3 4 3 5
1 5 4 5 23 22 13 11 9 6 2 4 8 11 13 14 16 15 14 12 12 11 7 4 3 3 4 3 3 2 1 1 1 1 2 1 2 2 2 0 3 5 4 4
4 5 8 7 21 26 16 12 9 6 2 3 7 10 14 15 15 17 13 7 8 8 8 5 4 4 5 6 3 5 3 3 2 2 2 4 3 4 5 5 6 4 3 5
7 7 9 11 24 22 18 14 11 5 2 3 7 9 13 15 15 15 14 11 8 8 8 5 6 4 6 7 8 7 7 6 5 4 6 6 5 5 4 6 4 6 4 4
7 8 8 16 22 20 17 15 12 8 6 1 6 10 13 14 15 13 13 11 9 10 7 7 6 5 5 9 8 9 10 7 7 7 8 8 7 5 5 5 7 10 10 11
13 11 10 30 24 18 19 18 13 13 4 2 6 9 13 14 14 13 12 11 10 10 10 8 8 8 7 10 13 13 12 12 11 8 8 9 8 7 7 8 9 11 12 13
15 17 15 20 34 22 21 17 16 14 7 4 6 8 12 14 14 13 12 11 10 10 10 9 11 11 9 6 9 12 10 12 13 11 11 10 11 12 13 13 13 13 13 13
18 20 22 20 40 26 21 19 20 14 9 7 5 5 13 13 13 13 12 11 10 9 10 11 10 9 10 14 14 9 8 12 13 14 15 15 15 16 17 17 17 17 16 16
24 25 28 27 40 28 23 19 17 19 13 10 6 6 13 16 15 14 13 12 11 11 11 10 11 11 11 8 7 7 8 8 10 12 14 16 18 18 19 18 18 19 20 21
29 29 33 30 46 36 25 18 17 19 22 9 10 11 9 18 17 15 13 13 12 12 14 16 11 14 10 9 8 8 8 7 9 11 10 10 12 13 15 18 20 21 23 24
33 27 34 35 48 47 32 22 16 17 24 27 20 16 15 11 21 17 12 9 11 8 12 13 19 24 19 16 13 12 10 9 9 10 10 11 13 14 16 18 21 23 24 25
38 34 37 32 42 44 31 22 15 13 14 23 33 21 15 15 16 18 12 6 6 5 9 10 8 17 13 17 19 14 11 11 11 11 13 15 17 19 21 23 25 27 29 30
42 39 38 35 37 22 19 18 17 14 19 13 26 31 22 17 17 14 12 8 6 6 8 7 7 17 13 12 14 13 11 11 12 13 15 17 20 23 26 29 31 34 34 34
44 42 38 24 25 21 21 28 28 29 14 25 23 29 31 24 19 13 7 7 8 7 8 7 12 12 11 13 13 10 10 11 13 15 18 21 24 28 31 33 36 37 37 35
47 44 34 22 18 22 27 41 39 38 36 12 29 23 26 26 21 10 7 10 6 7 8 9 9 9 12 15 10 8 10 13 15 17 21 24 27 31 34 36 38 38 38 35
37 34 21 32 25 25 26 27 30 38 36 29 17 28 24 23 12 12 11 8 8 9 7 9 9 10 14 10 8 10 13 15 18 20 24 27 30 32 34 36 36 37 37 36
31 31 24 35 39 25 24 28 27 30 31 30 26 26 12 14 10 12 13 8 9 9 8 7 11 12 8 8 10 13 15 17 20 23 25 27 28 30 31 33 34 33 33 31
36 28 45 29 33 27 23 29 28 31 32 34 25 17 13 10 12 13 15 14 10 7 10 11 9 7 8 10 12 15 17 19 21 23 24 24 24 26 28 30 30 29 28 26

GFSNW_700_spd_120.txt.gz
Wind_Speed
38 37 32 25 21 21 13 5 5 7 7 5 7 4 6 6 8 5 5 4 5 4 3 5 4 5 8 12 10 10 12 6 7 10 18 29 32 22 15 7 7 7 3 14
31 30 32 22 12 4 3 3 4 7 6 4 6 6 8 9 7 5 3 3 5 1 2 2 4 4 7 8 11 9 14 11 9 4 12 25 28 24 8 13 10 22 5 8
30 28 29 25 11 12 16 9 6 5 5 4 6 7 8 9 8 4 3 7 5 5 5 3 2 2 4 7 9 10 8 13 12 8 7 20 21 28 19 13 14 20 27 25
23 21 20 18 17 16 14 11 11 8 6 4 7 8 9 8 8 6 8 5 4 3 2 4 3 2 4 5 8 9 8 8 11 11 13 16 20 25 29 29 22 16 21 27
17 19 20 16 13 8 7 11 11 9 6 5 9 7 9 7 5 8 5 6 3 3 1 2 0 1 3 4 5 6 6 5 8 7 7 12 23 20 22 23 21 21 18 22
12 13 12 8 7 4 8 12 13 12 8 6 9 6 8 8 7 6 7 4 3 4 3 4 4 6 6 4 3 5 3 2 3 1 4 5 8 20 17 18 20 19 21 18
13 11 12 9 11 4 5 10 11 10 7 6 6 6 8 8 9 8 7 6 5 3 7 9 9 7 6 6 6 6 4 3 3 2 4 4 3 8 10 13 13 13 14 14
12 8 4 11 13 6 5 10 11 10 7 4 5 5 8 10 8 9 7 7 6 2 6 4 3 3 3 5 7 6 3 2 3 3 6 5 4 4 6 6 6 7 8 8
2 5 3 9 12 8 2 6 10 11 7 2 3 5 9 11 9 10 9 8 7 5 1 4 3 2 2 2 3 4 6 2 3 3 2 2 4 1 4 5 3 0 5 4
10 5 6 9 13 13 7 0 7 9 9 7 3 6 10 13 13 11 10 9 8 7 3 1 2 2 2 2 1 1 2 3 3 2 1 1 5 2 3 0 3 4 2 2
9 12 10 10 16 17 12 6 5 8 10 10 5 7 10 12 13 11 10 9 10 8 6 3 3 3 3 3 3 1 1 1 1 1 1 2 4 3 3 3 2 1 3 2
10 11 15 14 14 16 14 9 7 9 10 9 6 8 11 14 14 13 10 9 5 9 7 4 3 4 4 4 3 5 3 5 3 4 3 3 3 2 1 3 4 3 2 3
12 14 15 19 17 15 14 11 10 9 11 11 9 9 12 14 15 16 14 14 5 11 9 6 5 5 6 5 7 8 7 7 6 5 5 6 5 5 5 5 5 5 6 7
14 14 17 20 22 21 16 16 11 9 11 11 9 9 12 14 16 16 17 15 10 11 10 10 9 8 7 7 9 11 10 9 8 10 8 7 7 7 7 6 6 7 8 9
17 14 18 22 23 24 21 19 11 11 12 8 9 10 13 15 17 17 17 15 17 10 13 12 10 11 11 13 16 17 14 13 11 8 8 8 6 7 8 8 8 9 11 13
18 16 17 21 23 23 21 20 14 13 13 13 11 11 13 15 17 18 18 16 17 15 13 14 15 13 12 9 10 6 5 10 12 12 11 9 9 9 9 10 12 13 15 17
20 18 18 21 22 23 22 21 17 16 16 14 9 12 17 18 19 19 19 17 16 15 15 18 17 13 13 19 18 9 9 7 9 10 11 10 11 11 12 13 15 17 18 20
23 21 20 26 24 22 26 22 17 11 18 16 10 11 13 21 22 22 20 18 17 17 18 16 15 17 19 15 7 7 8 8 8 8 8 9 10 10 11 12 13 14 15 17
27 26 25 28 29 25 22 25 29 22 20 11 15 17 12 17 24 23 19 19 18 17 20 22 18 22 18 9 9 9 9 9 9 9 9 9 9 10 12 12 13 15 17 19
31 31 30 30 35 25 22 25 30 34 31 34 30 22 22 12 22 24 19 14 17 10 16 18 27 35 25 23 20 18 15 13 12 11 10 9 9 11 13 15 16 18 20 22
35 36 37 33 30 24 27 24 20 20 27 28 40 38 24 21 17 24 18 9 9 8 12 14 12 32 19 19 20 21 21 18 15 14 12 11 11 12 14 16 18 20 24 26
34 37 37 34 26 18 16 17 17 18 22 25 24 36 39 25 21 18 18 13 9 8 10 9 11 21 11 12 14 18 20 19 18 15 13 12 12 14 16 18 22 25 28 31
29 37 30 20 23 22 20 23 27 28 25 11 28 25 39 35 26 19 11 12 12 10 10 12 22 17 15 15 13 17 19 20 19 16 13 12 13 16 19 22 25 27 30 31
39 41 31 23 17 26 46 43 46 39 24 24 17 31 34 37 29 16 13 14 10 10 13 25 20 17 14 13 14 17 17 18 17 14 12 14 16 19 21 24 26 27 28 29
41 44 27 36 37 26 39 47 33 26 33 31 21 30 33 30 19 15 13 10 12 13 21 21 16 11 12 13 14 17 17 17 14 12 14 15 18 21 23 24 25 26 27 28
43 37 34 41 44 39 41 26 32 19 22 31 30 28 22 18 21 15 20 16 11 16 15 9 8 9 11 13 15 17 18 15 13 14 15 17 19 22 24 24 25 25 25 26
60 45 51 43 35 48 36 29 19 22 28 33 37 19 17 16 26 35 25 22 13 20 14 11 12 10 10 12 16 17 15 14 14 15 16 18 20 23 23 23 23 23 23 23

GFSNW_700_spd_123.txt.gz
Wind_Speed
32 28 27 25 20 21 19 12 8 8 7 6 5 5 6 7 6 4 3 4 3 2 3 5 3 3 5 11 13 11 10 7 9 11 22 30 27 22 16 9 9 8 4 13
31 26 23 22 22 25 17 13 9 4 5 6 6 6 7 11 5 2 2 2 3 1 2 3 4 5 10 12 14 11 10 10 10 9 10 26 32 27 15 12 14 28 6 9
24 23 28 27 22 18 15 12 8 6 4 5 8 6 5 6 7 2 3 3 4 2 3 4 4 6 7 9 11 9 6 9 10 8 7 17 23 28 23 18 10 18 29 32
17 20 21 20 16 16 15 12 11 9 3 5 5 5 6 5 3 2 5 1 2 1 2 4 5 5 8 7 8 8 6 4 6 8 11 19 21 23 23 28 23 15 24 34
14 10 12 12 13 15 13 13 12 10 5 6 7 6 6 6 3 5 2 2 1 2 1 0 4 5 5 7 7 4 4 2 3 2 6 7 20 20 22 20 22 22 23 31
4 6 1 2 4 7 9 11 13 11 5 6 7 5 7 7 5 4 4 3 2 2 3 2 1 1 4 6 6 4 4 3 5 1 5 2 5 15 15 18 20 20 26 19
11 3 1 4 5 2 6 10 10 12 6 3 5 5 6 8 7 5 4 3 2 1 5 5 3 2 3 4 5 5 3 5 5 6 7 2 1 5 9 13 15 16 15 17
16 13 4 10 11 5 2 8 8 8 5 1 1 4 6 7 8 7 5 5 3 2 3 2 3 4 6 6 5 4 3 5 5 5 6 3 2 2 2 4 7 11 11 11
12 11 13 10 12 9 4 1 6 5 5 3 3 4 6 9 9 9 8 7 4 2 3 4 3 2 4 4 5 4 5 3 3 5 2 1 1 1 2 3 3 5 7 7
13 12 14 17 17 16 10 4 1 2 2 3 6 6 7 9 11 10 10 8 7 6 2 3 3 3 4 3 3 3 2 1 0 2 3 2 4 2 1 2 3 4 2 5
14 13 13 16 19 19 15 12 6 3 3 5 4 6 9 11 12 11 7 9 10 7 6 3 4 3 4 4 6 4 2 2 2 2 2 2 3 2 2 3 2 4 4 2
13 14 14 14 15 18 18 15 13 10 7 7 6 7 10 12 13 14 13 11 5 12 7 6 5 4 5 5 3 5 3 8 3 5 5 4 3 4 2 2 3 3 4 2
16 15 15 15 16 14 17 18 18 20 16 10 9 9 11 14 16 16 17 16 10 11 10 10 8 7 8 5 7 11 10 11 9 6 7 8 7 6 4 4 4 4 4 3
17 18 18 16 16 17 16 18 20 20 21 15 9 8 12 15 17 18 18 17 18 12 14 13 13 11 9 10 12 12 13 10 9 13 11 9 9 7 6 5 6 6 7 8
19 19 18 18 17 17 19 19 20 22 20 18 10 11 11 16 18 20 19 20 18 17 14 18 16 16 15 19 20 18 12 15 13 8 8 9 7 7 6 7 7 7 9 10
21 21 20 20 18 18 17 21 20 19 22 24 21 13 12 16 19 21 21 20 21 20 21 19 20 18 17 13 13 6 5 6 12 12 11 9 8 7 7 8 8 10 12 14
21 22 22 21 20 18 16 18 17 16 20 21 16 17 17 18 20 21 22 22 22 21 23 26 24 19 17 26 26 10 10 8 8 9 9 9 8 7 8 8 10 12 12 14
22 24 23 23 23 22 19 20 20 19 16 18 13 15 15 13 21 22 23 22 21 24 26 26 23 23 25 23 9 11 12 10 9 9 7 8 8 8 7 7 9 10 12 14
23 25 26 26 28 26 23 19 20 24 22 11 17 22 16 10 17 23 21 22 22 24 27 28 24 29 23 8 9 10 10 10 10 11 9 9 9 8 8 8 10 11 13 16
25 25 27 31 32 28 23 20 25 28 33 36 36 28 26 21 15 20 18 14 17 15 19 22 33 44 32 27 22 18 16 16 14 13 12 11 11 10 10 11 12 14 16 18
26 28 31 31 28 22 21 19 16 17 24 35 44 43 35 27 20 18 15 11 8 9 15 17 16 40 24 18 23 25 26 23 19 19 18 16 14 13 13 13 14 16 18 21
29 27 28 28 22 13 13 17 19 25 23 30 26 26 33 36 32 17 14 18 9 10 11 10 16 32 18 15 18 20 23 23 23 22 20 18 16 15 14 15 16 18 21 23
24 22 21 13 17 25 18 24 25 24 34 23 14 23 27 32 34 27 13 12 14 13 12 16 29 19 18 14 13 16 19 22 25 24 22 19 17 15 15 16 18 20 23 25
29 27 24 19 16 17 41 44 41 41 33 27 21 17 24 29 26 21 16 19 13 12 20 30 25 27 24 18 18 18 19 21 22 23 21 18 16 15 16 18 20 22 24 26
40 28 20 35 38 37 27 27 37 39 30 23 24 27 28 22 17 17 16 10 15 19 29 31 27 31 27 20 19 19 19 21 22 21 20 17 15 16 17 19 21 23 24 25
49 37 34 38 33 39 43 36 28 33 28 27 30 29 18 16 14 16 23 24 13 11 18 15 15 10 13 15 17 19 20 21 21 21 19 16 16 16 18 20 21 22 23 24
60 58 50 39 39 36 34 37 35 21 34 37 31 21 18 13 17 27 29 36 16 22 28 19 16 15 15 16 17 18 19 20 20 19 17 16 16 17 19 20 21 21 22 22

GFSNW_700_spd_126.txt.gz
Wind_Speed
22 22 19 16 18 22 14 14 4 9 11 11 9 9 11 10 8 6 6 5 3 3 6 7 6 7 9 12 13 10 9 9 18 15 17 30 30 27 23 7 11 14 3 11
17 17 21 18 18 12 15 12 8 8 8 11 9 10 11 11 6 3 4 2 3 1 3 4 8 9 10 11 13 8 7 12 12 6 14 28 34 26 24 13 13 31 5 12
16 16 16 16 15 15 15 15 6 7 7 8 8 8 8 7 4 4 5 3 6 4 4 8 6 8 8 9 10 9 4 11 10 7 10 20 23 26 29 27 15 19 28 31
7 10 11 13 15 14 12 11 10 8 6 5 7 5 8 6 4 3 3 3 3 1 1 1 5 7 9 6 8 7 5 5 5 7 11 16 19 21 22 27 28 20 29 33
12 3 5 7 10 12 13 11 7 7 7 5 6 6 6 6 4 3 2 2 2 2 3 3 6 5 6 7 7 5 4 4 7 3 6 7 18 19 19 21 25 26 27 31
12 12 12 7 5 7 8 9 8 7 4 6 4 3 5 4 4 3 2 0 2 5 5 2 2 2 6 6 6 4 4 3 8 4 8 6 4 14 16 17 19 21 28 23
13 12 14 15 9 6 7 7 7 5 4 3 1 3 5 5 4 3 3 2 1 3 3 3 1 4 5 5 6 4 2 3 2 6 11 2 2 5 8 12 12 16 13 16
16 17 16 16 10 8 6 8 8 5 3 1 0 3 5 5 6 6 4 3 1 1 4 2 3 7 5 8 6 6 1 3 2 1 4 3 2 3 1 4 5 9 11 11
17 16 16 15 15 13 10 8 9 8 4 4 4 4 6 7 7 7 7 5 5 4 5 4 3 2 4 4 6 5 3 4 4 3 0 1 5 1 2 2 2 4 5 7
15 15 16 15 14 14 18 14 10 11 10 7 6 6 7 9 9 8 7 8 7 7 4 4 3 4 7 2 4 4 4 2 3 2 1 3 2 0 1 2 4 2 1 2
14 14 16 15 14 16 16 17 16 11 13 14 9 7 9 9 12 11 4 7 9 7 5 2 2 4 5 6 7 6 4 3 3 3 2 4 2 3 4 2 2 2 2 2
17 16 16 16 14 15 14 14 16 17 15 18 19 15 10 11 15 15 12 10 3 7 4 5 6 7 7 8 5 7 5 8 4 6 5 4 4 4 3 1 1 1 1 3
18 17 18 16 17 15 16 14 13 17 21 20 13 15 15 12 14 18 18 17 15 10 10 13 11 10 11 8 9 15 13 12 12 7 8 10 9 7 7 4 3 3 2 2
18 19 19 18 17 15 15 16 17 17 19 24 19 17 18 14 15 18 21 19 17 17 16 16 18 17 13 13 16 18 14 13 10 13 14 11 9 9 8 8 8 7 6 4
20 19 19 20 19 17 18 18 18 19 17 23 26 22 19 21 17 18 19 22 21 20 20 20 21 22 21 23 26 22 14 17 19 11 8 10 6 7 8 8 7 6 5 5
23 21 20 19 22 19 19 20 17 18 18 21 26 17 15 17 21 18 20 21 24 23 24 24 27 24 20 17 19 4 6 6 9 15 10 10 8 8 8 8 7 6 6 7
23 23 22 21 24 22 19 19 18 16 17 18 14 14 13 12 17 20 19 22 23 25 26 29 28 29 25 33 35 11 13 11 10 9 11 11 9 8 10 8 7 7 6 7
24 24 24 22 25 24 25 21 20 18 20 20 12 15 18 18 15 16 19 21 23 27 28 32 30 28 28 31 16 11 15 18 14 11 10 8 10 10 10 8 8 7 7 7
26 25 25 24 26 26 25 24 23 22 22 18 20 19 18 14 13 12 15 19 21 25 30 31 27 33 29 10 6 12 10 10 8 13 11 10 10 10 9 8 8 8 8 10
27 26 24 27 27 26 26 26 28 30 32 36 42 33 29 24 20 19 11 10 12 14 19 18 30 46 39 32 28 21 15 13 14 14 13 12 11 11 12 11 10 10 11 12
28 27 25 25 24 24 21 16 14 13 17 26 36 33 34 33 30 21 12 8 8 8 12 17 17 46 34 24 19 22 30 32 23 18 20 18 16 15 14 13 12 12 14 15
27 24 24 22 22 15 13 12 13 15 14 23 27 20 15 27 31 26 16 15 10 9 11 10 13 24 15 11 12 21 21 26 30 29 24 22 19 17 16 14 13 14 16 17
22 21 21 12 15 21 14 18 19 16 24 31 24 17 17 22 27 19 13 10 13 17 16 25 29 20 20 20 15 14 16 21 26 29 27 25 22 20 18 15 15 16 17 19
22 23 17 16 16 16 31 38 37 31 29 25 20 18 19 22 19 14 10 15 15 13 20 35 27 26 28 27 25 19 18 20 22 25 26 25 22 20 18 17 16 17 18 19
31 19 18 29 32 34 34 25 24 26 28 26 19 20 25 21 14 12 14 9 13 12 21 27 30 30 34 37 27 23 22 20 22 24 25 24 22 20 19 17 17 18 19 20
41 33 29 34 33 32 33 34 34 29 20 22 25 27 21 20 18 16 18 19 17 15 16 21 22 18 19 19 21 18 18 20 21 23 24 23 22 20 18 17 18 18 19 21
47 49 51 45 42 34 29 26 24 27 32 24 25 22 24 19 24 37 37 43 32 27 24 26 30 28 23 16 18 15 19 21 22 23 23 22 21 19 18 17 18 18 19 20

GFSNW_700_spd_129.txt.gz
Wind_Speed
12 13 14 17 21 17 13 10 7 9 9 4 11 15 14 13 10 8 9 7 7 4 6 5 8 9 11 13 11 11 9 8 11 9 14 27 30 26 23 6 9 11 5 11
17 17 18 19 19 20 16 10 9 8 6 10 11 13 12 11 8 6 6 5 5 5 6 5 8 9 9 11 11 7 8 10 10 6 9 23 25 25 19 10 11 25 5 13
13 14 14 16 19 20 18 15 7 10 7 10 9 9 7 4 5 5 5 6 5 4 3 7 7 9 9 8 8 6 4 6 6 4 6 18 18 20 27 26 14 13 26 26
14 14 16 16 18 18 20 18 14 11 4 5 3 1 5 4 2 4 3 4 1 1 2 1 5 6 7 5 6 6 3 3 3 4 5 12 19 18 20 27 27 18 19 32
17 16 15 16 15 19 18 19 15 10 7 5 6 3 1 0 1 1 1 1 0 2 3 4 4 4 6 6 5 3 3 3 8 8 7 11 11 13 14 22 22 23 27 34
15 17 16 16 13 12 16 16 16 12 7 4 4 4 3 3 4 3 3 2 3 3 6 2 2 1 4 3 4 3 2 3 8 5 10 9 5 10 13 15 16 17 24 19
19 16 16 15 15 7 11 13 14 14 10 6 6 6 5 6 4 5 6 6 6 5 3 2 2 2 2 2 4 3 2 3 3 7 9 4 5 8 7 7 8 11 10 15
17 19 17 16 15 11 9 12 12 13 12 11 9 7 8 7 7 7 6 7 7 7 6 4 2 2 1 2 2 5 3 2 2 4 5 7 5 5 5 3 5 9 11 10
17 17 18 18 16 13 10 10 12 11 12 12 12 13 9 10 11 8 8 7 8 10 10 5 2 1 3 1 4 0 1 1 2 3 3 3 4 3 2 3 1 5 7 8
14 16 15 16 17 13 11 12 11 11 10 10 14 12 14 12 12 13 9 9 9 9 9 7 3 3 5 3 3 3 5 5 8 7 6 8 5 4 2 3 1 0 3 5
13 15 15 14 15 15 15 13 12 10 11 12 10 16 14 14 15 14 11 9 7 8 6 3 2 6 4 6 6 7 5 4 5 6 6 5 5 3 3 3 2 1 0 2
12 14 14 15 17 15 16 16 14 11 10 14 18 18 11 12 13 16 15 13 9 4 4 5 5 8 9 9 6 5 6 9 4 7 6 6 5 6 5 3 1 1 1 1
15 14 14 14 14 15 16 17 15 15 15 16 10 17 16 11 11 12 17 18 17 17 14 12 13 12 12 11 10 13 13 13 15 10 7 14 14 10 8 5 5 4 3 3
18 15 15 16 16 17 17 17 18 16 18 20 9 9 13 17 12 12 13 18 20 20 21 22 21 20 17 18 17 21 18 17 13 15 15 14 11 11 11 9 9 7 6 6
20 18 16 15 15 16 18 20 20 18 16 20 20 19 21 18 18 15 14 15 19 22 24 26 26 26 24 27 31 28 18 21 24 14 9 11 8 13 14 12 11 11 11 10
22 20 18 17 16 16 18 21 20 17 16 20 20 18 21 21 19 18 21 19 18 22 26 27 30 29 24 19 26 6 6 7 9 13 16 12 10 11 12 12 11 11 11 10
23 23 21 20 17 16 17 19 22 21 19 18 15 13 6 9 9 12 13 16 20 22 26 31 31 32 29 38 40 12 16 17 15 12 13 13 13 10 12 13 13 13 12 11
24 24 24 23 21 19 18 22 25 22 19 19 10 11 13 15 17 17 18 17 16 23 26 31 32 31 32 35 25 17 13 20 22 17 13 13 15 16 14 13 13 12 11 10
25 25 26 26 24 23 21 22 25 25 20 15 16 18 18 8 13 17 17 17 19 21 22 27 27 32 33 29 6 6 10 10 10 17 18 17 17 16 16 14 13 10 9 9
28 27 27 28 26 23 23 24 26 29 28 32 34 29 28 26 26 25 20 14 13 17 20 18 28 37 33 31 27 25 29 23 15 15 14 15 17 17 15 13 14 12 10 9
30 29 27 27 24 21 21 15 12 10 11 18 18 11 14 19 25 27 14 11 9 10 15 19 21 40 37 19 13 18 21 26 33 21 19 18 17 17 18 17 15 13 11 11
30 30 26 25 21 14 12 10 10 9 10 16 13 9 9 15 18 18 11 14 9 10 12 12 17 16 10 6 12 15 12 21 23 32 29 23 22 21 19 18 17 16 14 13
29 29 26 14 15 20 12 16 16 9 14 18 13 11 10 13 14 11 11 10 11 14 12 18 24 24 23 25 34 34 24 25 20 22 28 35 28 25 22 20 19 17 15 14
32 31 22 15 15 14 21 21 19 16 19 20 17 15 11 15 15 13 8 12 12 12 19 26 29 20 19 21 25 26 21 20 19 19 22 30 30 26 24 23 20 19 17 16
39 23 16 25 25 28 25 25 22 18 17 19 19 19 19 20 14 9 12 8 11 11 11 11 19 8 11 18 19 23 28 26 21 20 21 24 28 27 25 23 21 20 18 17
42 35 26 24 24 24 24 22 23 23 21 20 20 20 13 19 14 15 16 18 20 20 12 19 22 23 29 30 26 25 17 16 21 21 22 24 25 25 24 24 22 19 18 17
49 50 54 49 46 42 33 29 24 22 26 27 21 18 21 14 20 33 39 43 43 39 35 32 35 38 42 37 23 20 27 21 15 18 21 23 25 25 24 23 21 19 18 18

GFSNW_700_spd_132.txt.gz
Wind_Speed
17 18 20 21 20 17 11 10 9 11 7 8 14 16 14 10 7 5 4 3 3 2 5 4 5 7 9 11 11 7 7 7 9 8 12 24 23 24 25 6 9 12 7 6
15 15 15 18 22 22 16 8 12 10 8 12 13 12 9 6 6 3 2 1 1 0 4 4 6 7 7 7 9 7 9 9 10 7 7 19 24 22 20 8 12 16 7 14
15 14 14 15 18 19 19 13 8 9 8 11 12 9 6 3 1 1 1 1 2 4 3 3 5 8 6 6 5 5 4 5 3 2 7 14 21 18 18 25 11 18 24 27
16 15 15 15 12 17 19 19 14 10 6 6 4 6 5 4 1 1 2 1 4 6 5 7 5 7 7 5 5 3 4 4 8 9 10 13 13 17 15 20 21 18 22 33
17 17 16 15 12 11 15 16 15 12 9 6 4 2 3 2 0 2 3 4 5 5 7 8 9 6 6 5 6 5 5 4 12 7 4 10 13 12 9 11 17 19 23 26
19 17 15 14 12 7 11 13 14 12 7 6 6 3 1 2 1 1 4 4 5 8 9 9 6 4 5 6 7 6 5 8 10 5 8 12 8 7 7 7 9 13 17 19
17 17 17 13 13 9 7 9 11 11 9 9 9 8 7 4 5 4 4 5 6 6 7 9 9 9 8 8 6 5 5 8 8 8 11 2 5 8 6 6 7 7 10 13
15 17 16 16 14 12 10 10 10 10 10 8 10 10 8 8 8 7 7 7 7 8 8 9 7 7 7 6 6 5 4 5 6 5 8 9 3 3 4 5 5 6 9 13
13 14 15 15 16 15 13 11 12 10 7 6 10 8 8 6 8 9 8 8 9 8 9 6 2 2 4 4 4 7 5 5 7 6 4 3 2 3 3 4 3 5 6 7
13 13 13 14 15 17 16 13 12 12 9 6 7 8 11 11 8 7 8 8 9 9 7 5 3 2 5 3 5 5 7 10 15 13 7 7 7 4 2 3 3 0 4 5
13 12 11 12 14 15 16 14 13 12 11 10 9 14 15 12 10 10 7 9 5 6 5 3 1 4 4 6 8 10 7 5 6 5 6 5 2 6 4 3 2 3 1 1
13 12 11 11 12 13 14 15 15 13 12 11 13 13 6 14 11 10 9 8 9 5 4 6 5 7 10 12 8 8 6 8 6 8 6 7 8 8 9 7 3 3 3 2
14 13 12 12 12 14 15 15 16 17 15 14 10 12 10 8 11 11 12 11 12 13 13 14 12 11 13 11 12 17 16 17 22 20 5 9 14 17 13 10 8 6 5 4
16 13 12 12 12 15 16 16 17 18 19 18 5 14 15 16 16 16 14 14 15 16 16 17 19 19 16 21 22 29 25 25 26 27 19 19 19 16 12 12 11 9 7 5
22 17 14 14 14 15 17 17 18 20 17 17 18 19 15 14 15 15 14 14 15 17 20 21 22 24 23 27 31 26 13 13 18 19 16 14 12 15 14 13 12 11 10 8
22 21 15 15 16 17 18 19 18 16 17 20 20 17 18 9 6 7 13 15 19 21 23 23 26 24 22 17 29 22 13 11 13 13 13 18 18 15 14 13 15 14 13 12
26 22 18 16 18 19 19 19 21 23 23 20 14 14 4 7 12 12 12 13 15 17 21 25 24 26 23 31 36 18 16 17 22 20 18 15 14 15 15 16 16 17 16 14
25 25 23 19 21 21 20 20 24 25 23 22 9 10 14 15 17 11 9 13 14 18 20 25 26 23 25 29 23 16 17 20 15 20 25 18 18 21 21 19 18 18 17 16
26 28 26 23 23 25 21 21 25 26 22 14 16 21 19 11 9 13 18 19 20 23 23 24 21 26 27 29 18 12 19 20 21 18 17 24 23 22 22 21 21 20 18 17
31 30 27 29 26 24 22 24 27 29 31 35 31 25 26 20 18 20 16 12 9 13 15 16 22 37 31 27 24 24 20 26 31 26 18 19 24 23 22 21 21 21 21 20
37 34 30 31 28 22 19 14 11 11 14 16 10 8 12 14 18 20 10 8 8 8 10 11 11 25 15 11 3 5 7 11 24 28 29 25 22 23 23 23 23 23 22 20
36 34 32 30 26 15 12 11 12 16 11 12 8 8 8 10 12 11 9 12 8 9 10 8 11 10 22 18 23 27 29 26 25 18 23 32 26 26 25 24 24 23 23 22
36 36 34 18 18 23 15 18 16 11 12 9 9 9 9 9 10 10 9 8 11 10 10 12 17 15 20 25 28 24 26 26 22 17 18 22 36 30 30 26 24 24 24 22
38 38 29 18 16 16 25 29 17 17 14 13 12 11 9 12 11 13 8 11 10 9 14 20 13 6 10 9 12 18 20 21 22 23 16 16 23 36 30 28 27 25 24 23
46 35 23 30 35 32 22 17 18 17 19 18 15 15 17 17 14 10 12 9 13 13 15 13 13 13 15 19 23 29 29 23 23 19 22 17 18 27 35 31 28 27 25 23
50 49 39 41 31 24 23 22 21 20 22 21 20 20 13 19 13 16 17 14 17 18 17 16 19 23 28 33 36 38 34 22 22 22 17 23 21 23 28 29 28 27 25 23
55 52 62 60 47 27 23 19 19 22 26 28 22 17 19 14 17 25 29 42 37 36 33 33 35 35 33 34 34 28 22 23 21 26 21 18 23 25 28 28 28 26 24 23

GFSNW_700_spd_135.txt.gz
Wind_Speed
15 13 13 17 17 13 8 8 4 5 8 8 10 13 13 10 6 3 2 2 4 5 7 5 7 9 10 12 12 11 11 7 10 7 3 20 21 22 22 5 8 17 7 8
14 15 14 11 15 16 9 7 8 7 6 8 11 10 7 5 5 3 2 4 5 5 7 5 6 9 9 10 11 10 11 8 10 5 3 10 16 22 18 15 12 9 8 13
16 14 14 13 11 15 14 10 5 8 7 5 7 8 7 5 4 4 3 3 4 7 7 7 7 9 7 9 10 10 10 7 6 7 14 18 18 18 19 19 9 18 18 30
17 16 14 15 10 13 15 11 10 7 5 4 2 3 4 4 2 3 4 4 4 6 5 9 6 7 7 8 8 10 10 8 12 17 16 12 14 14 15 15 15 12 22 22
17 17 16 14 11 10 13 14 11 8 5 3 2 1 3 4 4 4 4 5 6 6 7 8 11 10 8 6 9 11 11 7 19 19 9 11 18 11 8 8 10 15 22 26
16 16 17 15 13 10 9 10 11 10 8 5 3 2 3 4 5 5 5 5 6 8 8 8 7 6 9 11 11 11 11 12 16 6 14 17 5 7 6 8 9 9 12 16
15 14 15 15 14 11 9 9 8 8 8 6 6 5 4 4 5 6 7 7 7 7 7 9 10 10 10 12 11 11 11 13 9 11 15 3 6 10 8 8 6 6 8 9
13 13 13 14 13 12 10 9 9 8 6 6 8 7 7 6 6 7 8 9 8 8 9 9 6 4 5 6 9 9 9 10 6 6 12 16 5 5 7 9 7 7 7 7
11 11 12 13 14 13 11 9 9 10 8 4 7 6 10 10 9 9 8 8 9 9 9 7 4 2 3 2 5 8 10 10 8 5 4 3 4 7 8 11 5 6 7 6
11 11 11 12 14 15 14 11 10 9 10 7 8 10 11 12 11 10 11 10 9 10 8 7 4 3 4 3 4 6 10 11 15 14 7 10 10 9 7 5 7 8 7 7
11 12 13 12 13 14 16 14 12 11 9 9 9 11 13 11 11 11 10 11 5 6 6 4 4 4 4 7 8 8 7 6 5 5 8 7 2 6 6 8 11 8 7 8
14 13 14 14 15 15 17 16 15 14 12 12 12 11 10 10 11 10 11 9 9 5 5 6 7 9 11 10 6 9 8 10 6 8 7 11 14 14 14 12 10 9 9 8
17 16 17 16 15 16 16 19 18 16 17 16 12 8 9 11 11 13 12 11 12 13 14 16 14 13 15 12 13 15 16 15 20 21 8 10 11 15 11 15 14 11 11 10
18 20 18 18 17 17 17 18 21 20 18 17 7 13 15 16 16 16 15 15 16 16 15 17 21 22 18 22 22 29 27 29 29 33 26 25 23 20 16 14 13 13 12 13
18 19 25 20 19 19 19 19 21 22 18 17 14 17 18 12 16 13 13 13 13 15 19 20 22 24 23 28 32 28 16 14 16 20 15 15 14 14 12 12 14 15 14 11
22 23 24 18 17 21 22 21 19 18 19 21 22 16 18 16 9 9 10 10 13 16 20 22 23 22 19 17 31 22 13 10 13 19 24 22 16 17 20 15 12 13 11 10
23 24 25 24 19 21 23 22 22 23 26 23 17 13 5 7 12 13 14 14 15 16 20 23 23 24 24 32 32 16 16 18 17 19 21 22 20 21 19 18 16 14 13 13
28 27 27 24 24 23 24 24 23 23 25 26 11 11 13 13 17 18 16 15 16 20 23 26 25 25 25 24 15 9 14 13 14 19 18 13 17 25 24 23 22 18 17 16
33 31 30 30 28 27 24 24 25 24 26 21 19 22 18 11 11 12 14 19 22 25 27 26 20 26 21 19 20 18 20 21 22 22 21 21 19 19 27 25 23 21 20 19
35 35 34 35 34 30 27 26 26 28 33 40 38 31 29 22 20 16 13 12 10 14 16 16 22 37 18 12 17 21 20 21 27 27 30 33 27 20 24 25 24 22 22 22
42 41 40 39 34 29 25 16 13 12 16 18 21 18 21 19 22 22 11 9 7 8 10 11 12 27 7 6 13 16 14 15 17 21 19 22 28 30 27 28 28 25 25 24
42 42 40 38 35 26 16 14 14 16 15 15 14 13 13 16 16 14 10 12 8 8 10 9 10 6 11 18 21 24 26 29 30 32 37 31 24 31 32 28 30 30 29 27
42 40 39 24 20 25 17 23 19 16 12 13 12 17 16 13 13 12 10 8 9 10 10 14 24 17 17 21 18 13 10 14 17 21 24 31 25 27 37 35 32 31 32 31
41 43 34 24 20 20 37 41 26 22 18 16 19 18 15 17 13 13 7 11 9 9 14 26 24 25 22 18 19 21 21 22 22 24 26 23 26 24 27 40 36 34 33 31
48 36 23 40 49 51 26 17 23 21 26 19 20 19 20 16 13 9 11 8 12 12 17 17 15 16 20 24 27 29 32 35 35 33 28 26 25 26 24 32 39 35 34 32
50 42 46 53 45 36 39 40 34 31 30 27 24 22 13 18 12 16 19 13 19 22 18 18 18 21 24 28 33 37 40 39 30 22 24 26 28 26 25 28 36 33 32 32
53 63 69 66 57 30 28 28 31 35 36 34 22 15 18 14 16 23 25 44 41 30 25 24 27 30 36 37 38 38 35 33 27 21 20 23 27 29 26 28 32 35 32 32